VALORI APRILE 2009

 

DATA e ORA Temp corr umidità pressione pioggia

°C % hP mm
1-04-2009 0:00 11,8 90,1 1008,2 0.000
1-04-2009 0:15 11,6 91,5 1008,1 0.000
1-04-2009 0:30 11,3 94 1008,2 0.000
1-04-2009 0:45 11,2 95,4 1007,9 0.000
1-04-2009 1:00 11,1 96,3 1008,2 0.000
1-04-2009 1:15 11,6 92,7 1008,2 0.000
1-04-2009 1:30 11,6 91,8 1008,1 0.000
1-04-2009 1:45 12,1 86,9 1007,9 0.000
1-04-2009 2:00 12 88,4 1008,3 0.000
1-04-2009 2:15 11,5 91,1 1008,1 0.000
1-04-2009 2:30 11,6 91,1 1008 0.000
1-04-2009 2:45 11,4 93,1 1008,1 0.000
1-04-2009 3:00 11,3 91,8 1007,8 0,3
1-04-2009 3:15 11,6 91,1 1007,8 0.000
1-04-2009 3:30 11,4 92,8 1007,8 0.000
1-04-2009 3:45 11,7 90,7 1008 0.000
1-04-2009 4:00 11,6 91,8 1007,8 0.000
1-04-2009 4:15 11,5 92,4 1007,9 0.000
1-04-2009 4:30 11,3 94 1007,9 0.000
1-04-2009 4:45 11,5 91,8 1007,8 0.000
1-04-2009 5:00 11,6 90,2 1007,9 0.000
1-04-2009 5:15 11,6 89,9 1007,9 0.000
1-04-2009 5:30 11,6 89,3 1008 0.000
1-04-2009 5:45 11,4 90,3 1007,7 0.000
1-04-2009 6:00 11,1 91,4 1007,7 0.000
1-04-2009 6:15 10,9 92,1 1007,7 0.000
1-04-2009 6:30 11 91,7 1008 0.000
1-04-2009 6:45 11,6 88,2 1008 0.000
1-04-2009 7:00 11,8 87 1008 0.000
1-04-2009 7:15 12 87,2 1008 0.000
1-04-2009 7:30 12,1 85,9 1008 0.000
1-04-2009 7:45 12,3 85,8 1008 0.000
1-04-2009 8:00 12,5 85,4 1008 0.000
1-04-2009 8:15 12,8 84,4 1008 0.000
1-04-2009 8:30 12,9 84 1007,9 0.000
1-04-2009 8:45 13,5 79,6 1008,1 0.000
1-04-2009 9:00 14,2 76 1007,6 0.000
1-04-2009 9:15 14,3 76,1 1008 0.000
1-04-2009 9:30 14,6 74,9 1007,4 0.000
1-04-2009 9:45 15,3 73,7 1007,4 0.000
1-04-2009 10:00 15,8 71,4 1007,6 0.000
1-04-2009 10:15 16,1 69,8 1007,3 0.000
1-04-2009 10:30 17,1 67,3 1007,2 0.000
1-04-2009 10:45 17,8 64,2 1006,7 0.000
1-04-2009 11:00 17,1 67,4 1006,5 0.000
1-04-2009 11:15 17,2 67,7 1006,3 0.000
1-04-2009 11:30 17,4 66 1006,1 0.000
1-04-2009 11:45 17,8 65,1 1006,2 0.000
1-04-2009 12:00 18 65,7 1005,7 0.000
1-04-2009 12:15 17,8 65,4 1006,1 0.000
1-04-2009 12:30 17,5 66,3 1006,5 0.000
1-04-2009 12:45 17,3 65,8 1006,8 0.000
1-04-2009 13:00 17,5 64,9 1006,5 0.000
1-04-2009 13:15 17,3 66,2 1006,2 0.000
1-04-2009 13:30 17 67 1005,6 0.000
1-04-2009 13:45 17,3 66,1 1005,8 0.000
1-04-2009 14:00 17,5 64,8 1005,8 0.000
1-04-2009 14:15 18 64,4 1005,2 0.000
1-04-2009 14:30 17,7 64,7 1005,5 0.000
1-04-2009 14:45 17,7 64,7 1005,1 0.000
1-04-2009 15:00 17,8 65,3 1005,1 0.000
1-04-2009 15:15 18,5 62,4 1004,6 0.000
1-04-2009 15:30 18,2 63,2 1005 0.000
1-04-2009 15:45 18,3 62,8 1005,2 0.000
1-04-2009 16:00 17,8 64,8 1005 0.000
1-04-2009 16:15 17,6 65,4 1005,1 0.000
1-04-2009 16:30 17,5 65,8 1005,2 0.000
1-04-2009 16:45 17,4 66,3 1005 0.000
1-04-2009 17:00 17,1 66,1 1005,1 0.000
1-04-2009 17:15 17,1 65,8 1004,7 0.000
1-04-2009 17:30 16,9 67,5 1005 0.000
1-04-2009 17:45 16,6 68,7 1005,1 0.000
1-04-2009 18:00 16,6 67,3 1005,1 0.000
1-04-2009 18:15 16,5 67,8 1005,2 0.000
1-04-2009 18:30 16,5 67,6 1005,2 0.000
1-04-2009 18:45 16,3 68 1005,2 0.000
1-04-2009 19:00 16,1 67,7 1005,8 0.000
1-04-2009 19:15 16,1 68,5 1006 0.000
1-04-2009 19:30 15,8 70,9 1006 0.000
1-04-2009 19:45 15,2 76,2 1007,2 0.000
1-04-2009 20:00 14,6 82,9 1007,1 0,3
1-04-2009 20:15 14,1 87,4 1007,3 0,3
1-04-2009 20:30 13,5 92,6 1007,3 0,6
1-04-2009 20:45 13,2 94,5 1007,7 0,6
1-04-2009 21:00 12,9 96,8 1007,7 0,899
1-04-2009 21:15 12,9 97,5 1008 0,899
1-04-2009 21:30 12,8 98,4 1008 1,2
1-04-2009 21:45 12,6 99,9 1008,1 0,899
1-04-2009 22:00 12,4 99,9 1008,2 0,6
1-04-2009 22:15 12,4 99,9 1008,1 0,899
1-04-2009 22:30 12,4 99,5 1008,3 0,6
1-04-2009 22:45 12,3 99,9 1008,3 1,2
1-04-2009 23:00 12,4 99,9 1008,5 0,3
1-04-2009 23:15 12,4 99,9 1008,1 0,3
1-04-2009 23:30 12,4 99,9 1008,4 0,3
1-04-2009 23:45 12,3 99,9 1008 0.000
2-04-2009 0:00 12,3 99,9 1008,3 0.000
2-04-2009 0:15 12,1 99,9 1008,1 0,3
2-04-2009 0:30 12,1 99,9 1008,5 0,6
2-04-2009 0:45 12,1 99,9 1008,3 0,6
2-04-2009 1:00 12,1 99,9 1008,4 0,6
2-04-2009 1:15 12,1 99,9 1008,4 0.000
2-04-2009 1:30 12,1 99,9 1008,5 0,3
2-04-2009 1:45 12,1 99,9 1008,7 0,3
2-04-2009 2:00 12,1 99,9 1008,5 0,3
2-04-2009 2:15 12,1 99,9 1008,5 0,6
2-04-2009 2:30 12 99,9 1008,6 0,6
2-04-2009 2:45 11,9 99,9 1008,3 0,3
2-04-2009 3:00 11,8 99,9 1008,4 0.000
2-04-2009 3:15 11,7 99,9 1008,5 0.000
2-04-2009 3:30 11,6 99,9 1008,7 0.000
2-04-2009 3:45 11,6 99,9 1008,8 0.000
2-04-2009 4:00 11,5 99,9 1008,7 0.000
2-04-2009 4:15 11,6 99,9 1008,5 0.000
2-04-2009 4:30 11,6 99,9 1008,5 0.000
2-04-2009 4:45 11,5 99,9 1008,5 0.000
2-04-2009 5:00 11,2 99,9 1008,2 0.000
2-04-2009 5:15 11,2 99,9 1008,6 0.000
2-04-2009 5:30 11,2 99,9 1008,7 0.000
2-04-2009 5:45 11,2 99,9 1008,9 0.000
2-04-2009 6:00 11,1 99,9 1008,8 0.000
2-04-2009 6:15 11 99,9 1008,8 0.000
2-04-2009 6:30 11,1 99,9 1009,1 0.000
2-04-2009 6:45 11,4 99,9 1009,5 0.000
2-04-2009 7:00 11,5 99,9 1009,5 0.000
2-04-2009 7:15 11,6 99,9 1009,7 0.000
2-04-2009 7:30 11,5 99,9 1009,6 0.000
2-04-2009 7:45 11,5 99,9 1009,6 0.000
2-04-2009 8:00 11,5 99,9 1009,8 0.000
2-04-2009 8:15 11,6 99,9 1010,3 0.000
2-04-2009 8:30 11,8 99,7 1010,7 0.000
2-04-2009 8:45 12,1 99,4 1010,4 0.000
2-04-2009 9:00 12,2 98,4 1010,9 0.000
2-04-2009 9:15 12,6 96,6 1011,1 0.000
2-04-2009 9:30 13,1 94,5 1011 0.000
2-04-2009 9:45 13,1 92,1 1011,1 0.000
2-04-2009 10:00 13,7 88,1 1011,6 0.000
2-04-2009 10:15 14,1 84,9 1010,8 0.000
2-04-2009 10:30 14,3 85,5 1010,8 0.000
2-04-2009 10:45 14,3 81,2 1010,9 0.000
2-04-2009 11:00 14,4 83,2 1011,9 0.000
2-04-2009 11:15 15,4 73,6 1011,9 0.000
2-04-2009 11:30 15,5 75,6 1011,9 0.000
2-04-2009 11:45 15 75 1011,5 0.000
2-04-2009 12:00 15,6 73,4 1011,6 0.000
2-04-2009 12:15 15,6 71,2 1011,4 0.000
2-04-2009 12:30 17 68 1011,1 0,3
2-04-2009 12:45 17,1 65,9 1011,6 0.000
2-04-2009 13:00 17,1 66,7 1011,3 0.000
2-04-2009 13:15 17,4 62,8 1010,6 0.000
2-04-2009 13:30 17,6 59 1010,9 0.000
2-04-2009 13:45 17,2 66,1 1011,1 0.000
2-04-2009 14:00 18,1 61,6 1010,5 0.000
2-04-2009 14:15 18,1 57,3 1010,5 0.000
2-04-2009 14:30 18,1 59,3 1010,5 0.000
2-04-2009 14:45 18,1 59,2 1010,4 0.000
2-04-2009 15:00 18,1 55,8 1010 0.000
2-04-2009 15:15 18,5 53,6 1010,4 0.000
2-04-2009 15:30 19,9 48,6 1009,8 0.000
2-04-2009 15:45 18,6 50,6 1010,1 0.000
2-04-2009 16:00 18,5 56 1010 0.000
2-04-2009 16:15 17,1 65,6 1010,4 0.000
2-04-2009 16:30 15,9 71,3 1010,4 0.000
2-04-2009 16:45 16,8 65,9 1010,8 0.000
2-04-2009 17:00 16,6 66,2 1010,7 0.000
2-04-2009 17:15 16,8 68,3 1010,8 0.000
2-04-2009 17:30 16,5 69,6 1010,7 0.000
2-04-2009 17:45 16,6 68,7 1010,9 0.000
2-04-2009 18:00 16 69,2 1011,4 0.000
2-04-2009 18:15 15,8 69,9 1011,6 0.000
2-04-2009 18:30 15,4 73,9 1011,6 0.000
2-04-2009 18:45 15,1 76 1012 0.000
2-04-2009 19:00 14,6 77,1 1012,2 0.000
2-04-2009 19:15 14,4 79,3 1011,9 0.000
2-04-2009 19:30 14,2 80,2 1012,4 0.000
2-04-2009 19:45 14 83,7 1012,7 0.000
2-04-2009 20:00 14,1 79,9 1012,8 0.000
2-04-2009 20:15 14 79 1013,2 0.000
2-04-2009 20:30 13,9 80,3 1013,7 0.000
2-04-2009 20:45 13,6 81,9 1013,7 0.000
2-04-2009 21:00 13,5 83,2 1014,1 0.000
2-04-2009 21:15 13,1 86,1 1014,1 0.000
2-04-2009 21:30 12,5 91,7 1014,1 0.000
2-04-2009 21:45 12,3 92,5 1014,4 0.000
2-04-2009 22:00 12 94 1014,3 0.000
2-04-2009 22:15 11,8 94,8 1014,2 0.000
2-04-2009 22:30 11,1 95,9 1014,5 0.000
2-04-2009 22:45 10,6 96,8 1015,2 0.000
2-04-2009 23:00 10,3 98,3 1015,1 0.000
2-04-2009 23:15 10,1 99,6 1015,1 0.000
2-04-2009 23:30 10 99,9 1015 0.000
2-04-2009 23:45 9,8 99,9 1014,9 0.000
3-04-2009 0:00 9,5 99,9 1015,4 0.000
3-04-2009 0:15 10,3 99,9 1015 0.000
3-04-2009 0:30 10,5 97,6 1015,7 0.000
3-04-2009 0:45 9,6 97,9 1015,3 0.000
3-04-2009 1:00 9,1 99,9 1015,7 0.000
3-04-2009 1:15 8,6 99,8 1015,8 0.000
3-04-2009 1:30 8,3 99,9 1016 0.000
3-04-2009 1:45 9 99,9 1015,7 0.000
3-04-2009 2:00 9,1 99,9 1016,5 0.000
3-04-2009 2:15 9 99,9 1016,1 0.000
3-04-2009 2:30 8,2 99,9 1015,8 0.000
3-04-2009 2:45 7,8 99,9 1015,8 0.000
3-04-2009 3:00 7,6 99,9 1016,3 0.000
3-04-2009 3:15 7,4 99,9 1015,8 0.000
3-04-2009 3:30 7,2 99,9 1015,9 0.000
3-04-2009 3:45 7,1 99,9 1015,6 0.000
3-04-2009 4:00 7,3 99,9 1016 0.000
3-04-2009 4:15 8,2 99,9 1015,9 0.000
3-04-2009 4:30 7,3 99,9 1016 0.000
3-04-2009 4:45 8 99,9 1015,7 0.000
3-04-2009 5:00 6,8 99,9 1015,5 0.000
3-04-2009 5:15 6,8 99,9 1015,8 0.000
3-04-2009 5:30 6,3 99,9 1015,8 0.000
3-04-2009 5:45 6,1 99,9 1015,5 0.000
3-04-2009 6:00 6 99,9 1015,9 0.000
3-04-2009 6:15 6 99,9 1015,7 0.000
3-04-2009 6:30 5,6 99,9 1015,7 0.000
3-04-2009 6:45 6,4 99,9 1015,9 0.000
3-04-2009 7:00 6,1 99,9 1016 0.000
3-04-2009 7:15 6,3 99,9 1016,3 0.000
3-04-2009 7:30 7,2 99,9 1016,3 0.000
3-04-2009 7:45 7,6 99,9 1016,5 0.000
3-04-2009 8:00 7,9 99,9 1016 0.000
3-04-2009 8:15 8,3 99,9 1016,5 0.000
3-04-2009 8:30 8,9 98,7 1016,3 0.000
3-04-2009 8:45 10 94,9 1016,2 0.000
3-04-2009 9:00 11,1 91,3 1016,8 0.000
3-04-2009 9:15 11,5 89,8 1016,8 0.000
3-04-2009 9:30 12,1 87,4 1016,8 0.000
3-04-2009 9:45 13,5 83,5 1017 0.000
3-04-2009 10:00 13,5 80,8 1016,5 0.000
3-04-2009 10:15 14,5 75,6 1016,8 0.000
3-04-2009 10:30 14,9 75,4 1016,7 0.000
3-04-2009 10:45 15,7 69,9 1016,5 0.000
3-04-2009 11:00 15,5 71,4 1016,6 0.000
3-04-2009 11:15 16,3 68,6 1016,3 0.000
3-04-2009 11:30 16,6 67,9 1016,2 0.000
3-04-2009 11:45 17,1 62,9 1016,4 0.000
3-04-2009 12:00 17,3 61 1016,4 0.000
3-04-2009 12:15 18,1 61,6 1016,4 0.000
3-04-2009 12:30 17,8 59,9 1016,1 0.000
3-04-2009 12:45 18,3 56,5 1016 0.000
3-04-2009 13:00 18,6 56,9 1016 0.000
3-04-2009 13:15 19 52 1016,1 0.000
3-04-2009 13:30 18,6 51,6 1015,8 0.000
3-04-2009 13:45 19,1 50,9 1016 0.000
3-04-2009 14:00 19,7 45,9 1015,8 0.000
3-04-2009 14:15 19,8 45 1015,6 0.000
3-04-2009 14:30 19,9 46,2 1015,3 0.000
3-04-2009 14:45 20,1 42,8 1015,4 0.000
3-04-2009 15:00 20,1 45,2 1015,1 0.000
3-04-2009 15:15 20,4 42,2 1014,8 0.000
3-04-2009 15:30 20,1 42,2 1014,9 0.000
3-04-2009 15:45 20,3 37,6 1014,8 0.000
3-04-2009 16:00 20,8 40,9 1014,6 0.000
3-04-2009 16:15 20,5 35,7 1014,2 0.000
3-04-2009 16:30 20,5 44 1013,8 0.000
3-04-2009 16:45 20,2 42,8 1014,1 0.000
3-04-2009 17:00 20 45,6 1013,7 0.000
3-04-2009 17:15 19,1 53,5 1013,8 0.000
3-04-2009 17:30 18,6 57 1013,9 0.000
3-04-2009 17:45 18,3 56,2 1013,9 0.000
3-04-2009 18:00 17,9 59,5 1014,3 0.000
3-04-2009 18:15 17,9 58,6 1014,4 0.000
3-04-2009 18:30 17,8 59,9 1014,3 0.000
3-04-2009 18:45 17,1 61,6 1014,1 0.000
3-04-2009 19:00 16,8 63,8 1014,3 0.000
3-04-2009 19:15 16,2 63,7 1014,7 0.000
3-04-2009 19:30 15,7 64,9 1014,9 0.000
3-04-2009 19:45 15,2 65,8 1014,5 0.000
3-04-2009 20:00 14,7 67,8 1015 0.000
3-04-2009 20:15 14,4 69 1015,1 0.000
3-04-2009 20:30 14,2 69,5 1015,2 0.000
3-04-2009 20:45 13,6 73,7 1015,4 0.000
3-04-2009 21:00 13,3 75,5 1015,8 0.000
3-04-2009 21:15 13 78,5 1015,5 0.000
3-04-2009 21:30 12,1 85,4 1015,6 0.000
3-04-2009 21:45 12 85,9 1015,4 0.000
3-04-2009 22:00 11,7 86 1015,5 0.000
3-04-2009 22:15 11,6 87,3 1015,9 0.000
3-04-2009 22:30 12 87,6 1015,8 0.000
3-04-2009 22:45 11,7 88,2 1015,6 0.000
3-04-2009 23:00 11,5 88,9 1015,4 0.000
3-04-2009 23:15 11,3 91,6 1015,5 0.000
3-04-2009 23:30 11,2 90,4 1015,9 0.000
3-04-2009 23:45 10,6 92,1 1015,9 0.000
4-04-2009 0:00 10,3 94,5 1015,9 0.000
4-04-2009 0:15 10,6 93 1015,7 0.000
4-04-2009 0:30 10,3 93,2 1015,7 0.000
4-04-2009 0:45 10 95,5 1015,8 0.000
4-04-2009 1:00 9,8 97,1 1015,4 0.000
4-04-2009 1:15 9,7 97,5 1015,5 0.000
4-04-2009 1:30 9,6 97,6 1015,7 0.000
4-04-2009 1:45 9,3 97,9 1015,4 0.000
4-04-2009 2:00 9,1 97,8 1015,4 0.000
4-04-2009 2:15 8,8 99,4 1015,4 0.000
4-04-2009 2:30 8,7 99,8 1015,5 0.000
4-04-2009 2:45 8,6 99,9 1015,2 0.000
4-04-2009 3:00 8,5 99,9 1015,3 0.000
4-04-2009 3:15 8,3 99,9 1014,8 0.000
4-04-2009 3:30 8,1 99,9 1015 0.000
4-04-2009 3:45 8 99,9 1014,8 0.000
4-04-2009 4:00 7,8 99,9 1014,9 0.000
4-04-2009 4:15 7,7 99,9 1014,9 0.000
4-04-2009 4:30 7,8 99,9 1015,1 0.000
4-04-2009 4:45 7,6 99,9 1014,9 0.000
4-04-2009 5:00 8 99,9 1014,9 0.000
4-04-2009 5:15 7,6 99,9 1014,7 0.000
4-04-2009 5:30 7,2 99,9 1015,1 0.000
4-04-2009 5:45 7,4 99,9 1014,7 0.000
4-04-2009 6:00 7,1 99,9 1014,5 0.000
4-04-2009 6:15 6,8 99,9 1014,8 0.000
4-04-2009 6:30 6,4 99,9 1014,7 0.000
4-04-2009 6:45 6,2 99,9 1014,8 0.000
4-04-2009 7:00 6,1 99,9 1014,8 0.000
4-04-2009 7:15 6,1 99,9 1014,9 0.000
4-04-2009 7:30 6,5 99,9 1014,7 0.000
4-04-2009 7:45 7,3 99,9 1014,9 0.000
4-04-2009 8:00 7,3 99,9 1014,6 0.000
4-04-2009 8:15 8,1 99,9 1015 0.000
4-04-2009 8:30 8,7 99,9 1014,7 0.000
4-04-2009 8:45 9,3 98,7 1015,1 0.000
4-04-2009 9:00 9,7 95,4 1015,2 0.000
4-04-2009 9:15 10,5 93,7 1015,1 0.000
4-04-2009 9:30 11,2 91,8 1015,1 0.000
4-04-2009 9:45 12,5 87,3 1015,2 0.000
4-04-2009 10:00 12,8 84,8 1014,9 0.000
4-04-2009 10:15 13 86 1014,9 0.000
4-04-2009 10:30 13,3 83,4 1015,2 0.000
4-04-2009 10:45 13,9 83,2 1015,4 0.000
4-04-2009 11:00 14,8 80 1015,1 0.000
4-04-2009 11:15 15,1 78,3 1015,4 0.000
4-04-2009 11:30 15,6 75,7 1015,1 0.000
4-04-2009 11:45 15,6 74,5 1015,1 0.000
4-04-2009 12:00 16,1 74,1 1014,5 0.000
4-04-2009 12:15 16,2 69,1 1014,5 0.000
4-04-2009 12:30 16,9 66,2 1014,7 0.000
4-04-2009 12:45 17,4 69,8 1014,5 0.000
4-04-2009 13:00 17,4 64,2 1014,4 0.000
4-04-2009 13:15 17,6 60,8 1014,3 0.000
4-04-2009 13:30 18 57,1 1014,4 0.000
4-04-2009 13:45 18,4 56 1014 0.000
4-04-2009 14:00 18,5 55,4 1014,2 0.000
4-04-2009 14:15 18,3 58,3 1014,4 0.000
4-04-2009 14:30 18,5 55,2 1014,3 0.000
4-04-2009 14:45 18,2 62,3 1014,3 0.000
4-04-2009 15:00 18,1 57,4 1014,2 0.000
4-04-2009 15:15 18,1 54 1013,9 0.000
4-04-2009 15:30 17,8 58,1 1013,9 0.000
4-04-2009 15:45 17,3 70,3 1013,8 0.000
4-04-2009 16:00 16,5 74,2 1013,3 0.000
4-04-2009 16:15 16,5 72,5 1014 0.000
4-04-2009 16:30 16,5 71,3 1013,9 0.000
4-04-2009 16:45 16,5 74 1013,8 0.000
4-04-2009 17:00 16,3 79 1013,8 0.000
4-04-2009 17:15 16,3 77,1 1013,7 0.000
4-04-2009 17:30 16,4 77,1 1013,7 0.000
4-04-2009 17:45 16,1 78,7 1013,5 0.000
4-04-2009 18:00 16,1 79,9 1013,5 0.000
4-04-2009 18:15 16,1 79,2 1014 0.000
4-04-2009 18:30 16 81,2 1013,6 0.000
4-04-2009 18:45 15,8 81,6 1013,8 0.000
4-04-2009 19:00 15,6 82,9 1013,6 0.000
4-04-2009 19:15 15,3 85 1014,3 0.000
4-04-2009 19:30 15 86,7 1013,9 0.000
4-04-2009 19:45 14,8 88,1 1014,3 0.000
4-04-2009 20:00 14,5 89,1 1014,3 0.000
4-04-2009 20:15 14,3 90,7 1014,3 0.000
4-04-2009 20:30 13,6 92,3 1014,2 0.000
4-04-2009 20:45 13,6 92,8 1015 0.000
4-04-2009 21:00 13,5 94,7 1015,2 0.000
4-04-2009 21:15 13,4 94,8 1015,4 0.000
4-04-2009 21:30 13,1 93,9 1015,5 0.000
4-04-2009 21:45 12,8 95,7 1015,6 0.000
4-04-2009 22:00 12,5 96,6 1015,6 0.000
4-04-2009 22:15 12,4 98,8 1015,7 0.000
4-04-2009 22:30 11,8 98,6 1016 0.000
4-04-2009 22:45 11,5 99,8 1016 0.000
4-04-2009 23:00 10,7 99,4 1016,4 0.000
4-04-2009 23:15 10,1 99 1016,2 0.000
4-04-2009 23:30 9,8 99,9 1016 0.000
4-04-2009 23:45 10,4 99,9 1015,7 0.000
5-04-2009 0:00 9,8 99,9 1016,2 0.000
5-04-2009 0:15 9,6 99,9 1016 0.000
5-04-2009 0:30 9,1 99,9 1015,9 0.000
5-04-2009 0:45 9,3 99,9 1016 0.000
5-04-2009 1:00 9,2 99,9 1016,1 0.000
5-04-2009 1:15 9,1 99,9 1016,1 0.000
5-04-2009 1:30 9 99,9 1016,1 0.000
5-04-2009 1:45 9,3 99,9 1016 0.000
5-04-2009 2:00 9,7 99,9 1015,9 0.000
5-04-2009 2:15 10,1 99,9 1015,8 0.000
5-04-2009 2:30 10,3 99,9 1015,8 0.000
5-04-2009 2:45 10,5 99,9 1015,5 0.000
5-04-2009 3:00 10,6 99,9 1015,9 0.000
5-04-2009 3:15 10,9 99,9 1015,8 0.000
5-04-2009 3:30 11 99,9 1016,1 0.000
5-04-2009 3:45 11 99,9 1016 0.000
5-04-2009 4:00 10,6 99,9 1015,6 0.000
5-04-2009 4:15 10,4 99,9 1015,7 0.000
5-04-2009 4:30 10,6 99,9 1015,3 0.000
5-04-2009 4:45 10,6 99,9 1015,6 0.000
5-04-2009 5:00 10,6 99,9 1015,5 0.000
5-04-2009 5:15 10,6 99,9 1015,3 0.000
5-04-2009 5:30 10,8 99,9 1015,7 0.000
5-04-2009 5:45 10,9 99,9 1015,4 0.000
5-04-2009 6:00 10,8 99,9 1015,7 0.000
5-04-2009 6:15 10,9 99,9 1015,3 0.000
5-04-2009 6:30 10,9 99,9 1015,3 0.000
5-04-2009 6:45 10,9 99,9 1015,5 0.000
5-04-2009 7:00 10,9 99,9 1015,9 0.000
5-04-2009 7:15 10,9 99,9 1015,8 0.000
5-04-2009 7:30 10,8 99,9 1016,3 0.000
5-04-2009 7:45 11 99,9 1015,9 0.000
5-04-2009 8:00 11,1 99,9 1016,1 0.000
5-04-2009 8:15 11,3 99,9 1016,2 0.000
5-04-2009 8:30 11,6 99 1016,1 0.000
5-04-2009 8:45 12,1 97,1 1015,9 0.000
5-04-2009 9:00 12,3 95,9 1016,2 0.000
5-04-2009 9:15 12,4 95,2 1016,5 0.000
5-04-2009 9:30 12,6 94,5 1016,2 0.000
5-04-2009 9:45 13 93,6 1016,4 0.000
5-04-2009 10:00 13,3 89,3 1016,3 0.000
5-04-2009 10:15 13,9 85,5 1016,4 0.000
5-04-2009 10:30 14,8 81,8 1016,4 0.000
5-04-2009 10:45 15,5 78 1016,1 0.000
5-04-2009 11:00 15,8 77,2 1016,1 0.000
5-04-2009 11:15 15,8 77,8 1016,2 0.000
5-04-2009 11:30 15,6 80,9 1016,3 0.000
5-04-2009 11:45 17,1 74,7 1016,2 0.000
5-04-2009 12:00 16,5 80,6 1016 0.000
5-04-2009 12:15 17,2 76,5 1015,9 0.000
5-04-2009 12:30 17,5 73 1015,7 0.000
5-04-2009 12:45 18,3 70,6 1015,1 0.000
5-04-2009 13:00 18,7 66,9 1015,1 0.000
5-04-2009 13:15 18,7 65,7 1014,9 0.000
5-04-2009 13:30 19,2 62,9 1015,1 0.000
5-04-2009 13:45 20 62 1014,5 0.000
5-04-2009 14:00 19,6 66,2 1014,4 0.000
5-04-2009 14:15 20,5 59,2 1014,4 0.000
5-04-2009 14:30 20,8 59,4 1014,3 0.000
5-04-2009 14:45 21 55,6 1013,9 0.000
5-04-2009 15:00 21,3 52,7 1013,5 0.000
5-04-2009 15:15 21,5 55,2 1013,2 0.000
5-04-2009 15:30 21,1 54,1 1013,5 0.000
5-04-2009 15:45 22 54,7 1012,9 0.000
5-04-2009 16:00 22 52,1 1012,8 0.000
5-04-2009 16:15 21,8 50,2 1012,4 0.000
5-04-2009 16:30 21,1 52,5 1012,3 0.000
5-04-2009 16:45 20,7 54,9 1012 0.000
5-04-2009 17:00 20,5 55,4 1012,2 0.000
5-04-2009 17:15 19,3 63,7 1012,5 0.000
5-04-2009 17:30 18 68,3 1012,3 0.000
5-04-2009 17:45 17,8 70,5 1012,5 0.000
5-04-2009 18:00 17,8 69 1013,1 0.000
5-04-2009 18:15 17,6 68,8 1012,6 0.000
5-04-2009 18:30 17,3 69,7 1013 0.000
5-04-2009 18:45 17,2 71,6 1013,1 0.000
5-04-2009 19:00 16,6 74 1013,5 0.000
5-04-2009 19:15 16,5 74,2 1013,5 0.000
5-04-2009 19:30 16,3 76,4 1013,5 0.000
5-04-2009 19:45 16,2 77,4 1013,3 0.000
5-04-2009 20:00 15,3 80,7 1013,8 0.000
5-04-2009 20:15 15,2 81,7 1013,1 0.000
5-04-2009 20:30 14,6 83,4 1013,6 0.000
5-04-2009 20:45 14,4 83,8 1014,1 0.000
5-04-2009 21:00 13,9 85,9 1014,4 0.000
5-04-2009 21:15 13,2 89,2 1014,2 0.000
5-04-2009 21:30 12,8 90,7 1014,7 0.000
5-04-2009 21:45 12,1 94,6 1014,7 0.000
5-04-2009 22:00 11,8 95 1014,7 0.000
5-04-2009 22:15 11,4 96,9 1015,2 0.000
5-04-2009 22:30 11,2 96,8 1015,3 0.000
5-04-2009 22:45 11 97,7 1014,9 0.000
5-04-2009 23:00 11 98,6 1014,7 0.000
5-04-2009 23:15 10,6 98,5 1014,9 0.000
5-04-2009 23:30 10,3 99,1 1015 0.000
5-04-2009 23:45 10,1 99,5 1015,3 0.000
6-04-2009 0:00 10,1 99,9 1015,4 0.000
6-04-2009 0:15 10,6 99,9 1015,1 0.000
6-04-2009 0:30 10,4 99,7 1015,1 0.000
6-04-2009 0:45 10,3 99,9 1015,1 0.000
6-04-2009 1:00 10,6 99,9 1014,9 0.000
6-04-2009 1:15 11,1 99,2 1015,3 0.000
6-04-2009 1:30 11,3 99 1015,3 0.000
6-04-2009 1:45 11,6 97,1 1015 0.000
6-04-2009 2:00 11,4 96,8 1015 0.000
6-04-2009 2:15 11,5 97 1014,6 0.000
6-04-2009 2:30 11,8 96,7 1014,4 0.000
6-04-2009 2:45 11,9 95,6 1014,6 0.000
6-04-2009 3:00 11,5 97,8 1014,7 0.000
6-04-2009 3:15 11,2 99,8 1015 0.000
6-04-2009 3:30 11,5 99,9 1014,8 0.000
6-04-2009 3:45 11,8 99,9 1014,7 0.000
6-04-2009 4:00 11,8 99,9 1014,6 0.000
6-04-2009 4:15 11,6 99,9 1014,7 0.000
6-04-2009 4:30 11,6 99,9 1014,6 0.000
6-04-2009 4:45 11,6 99,9 1014,4 0.000
6-04-2009 5:00 11,5 99,9 1014,5 0.000
6-04-2009 5:15 11,5 99,9 1014,5 0.000
6-04-2009 5:30 11,6 99,9 1014,4 0.000
6-04-2009 5:45 11,6 99,9 1014 0.000
6-04-2009 6:00 11,7 99,9 1014,5 0.000
6-04-2009 6:15 11,6 99,9 1014,4 0.000
6-04-2009 6:30 11,6 99,9 1014,3 0.000
6-04-2009 6:45 11,7 99,9 1014,7 0.000
6-04-2009 7:00 11,6 99,9 1014,6 0.000
6-04-2009 7:15 11,8 99,9 1014,7 0.000
6-04-2009 7:30 11,8 99,9 1014,5 0.000
6-04-2009 7:45 11,8 99,9 1014,7 0.000
6-04-2009 8:00 11,9 99,9 1014,8 0.000
6-04-2009 8:15 12,1 99,6 1014,8 0.000
6-04-2009 8:30 12,3 98 1014,4 0.000
6-04-2009 8:45 12,3 97,6 1014,9 0.000
6-04-2009 9:00 12,3 96,1 1015,1 0.000
6-04-2009 9:15 12,6 94,1 1014,8 0.000
6-04-2009 9:30 12,8 92,3 1015,2 0.000
6-04-2009 9:45 12,9 91,5 1015,2 0.000
6-04-2009 10:00 13,3 89,5 1015,1 0.000
6-04-2009 10:15 13,4 90,4 1015,3 0.000
6-04-2009 10:30 13,8 88,8 1015,4 0.000
6-04-2009 10:45 14,8 83,1 1015,5 0.000
6-04-2009 11:00 14,5 83 1015,2 0.000
6-04-2009 11:15 14,8 82,6 1015,2 0.000
6-04-2009 11:30 15,5 80,7 1014,9 0.000
6-04-2009 11:45 15,7 79,7 1014,8 0.000
6-04-2009 12:00 16,7 78,8 1015,1 0.000
6-04-2009 12:15 16,1 78,6 1014,4 0.000
6-04-2009 12:30 17,2 77,4 1014 0.000
6-04-2009 12:45 17 76,2 1013,9 0.000
6-04-2009 13:00 17,5 73,7 1014 0.000
6-04-2009 13:15 17,9 71,8 1013,3 0.000
6-04-2009 13:30 18,3 72,5 1013,3 0.000
6-04-2009 13:45 18,6 72,8 1012,8 0.000
6-04-2009 14:00 19,1 71,6 1013,1 0.000
6-04-2009 14:15 19 69,5 1012,8 0.000
6-04-2009 14:30 19,4 70,1 1012,5 0.000
6-04-2009 14:45 19,2 68,7 1012,2 0.000
6-04-2009 15:00 19,5 68,2 1012,3 0.000
6-04-2009 15:15 19,7 68,1 1012,2 0.000
6-04-2009 15:30 19,5 67,9 1011,9 0.000
6-04-2009 15:45 20,1 67,7 1011,7 0.000
6-04-2009 16:00 19,8 65,2 1011,3 0.000
6-04-2009 16:15 20 64,8 1010,8 0.000
6-04-2009 16:30 19,6 65,4 1010,8 0.000
6-04-2009 16:45 19,8 66 1010,4 0.000
6-04-2009 17:00 19,4 67 1010,8 0.000
6-04-2009 17:15 18,8 67,3 1010,9 0.000
6-04-2009 17:30 18,8 69,3 1010,4 0.000
6-04-2009 17:45 18,6 70,4 1010,4 0.000
6-04-2009 18:00 18,1 73,5 1010,6 0.000
6-04-2009 18:15 17,9 74,4 1010,8 0.000
6-04-2009 18:30 17,8 75,1 1011,1 0.000
6-04-2009 18:45 17,5 77,4 1010,9 0.000
6-04-2009 19:00 16,7 80,9 1011,3 0.000
6-04-2009 19:15 16,3 82,3 1010,9 0.000
6-04-2009 19:30 15,7 84,4 1011,5 0.000
6-04-2009 19:45 15 87,1 1011,6 0.000
6-04-2009 20:00 14,5 89,7 1011,5 0.000
6-04-2009 20:15 14 91,2 1011,9 0.000
6-04-2009 20:30 13,8 91,9 1011,9 0.000
6-04-2009 20:45 13,5 93,7 1011,9 0.000
6-04-2009 21:00 13,1 94,8 1012,2 0.000
6-04-2009 21:15 12,8 96 1012,4 0.000
6-04-2009 21:30 12,5 97,2 1012,9 0.000
6-04-2009 21:45 12,3 98,3 1013,1 0.000
6-04-2009 22:00 12,1 98,3 1012,7 0.000
6-04-2009 22:15 12 99 1012,9 0.000
6-04-2009 22:30 12 98,7 1012,9 0.000
6-04-2009 22:45 11,9 98,9 1013 0.000
6-04-2009 23:00 11,7 98,9 1013 0.000
6-04-2009 23:15 11,3 98,5 1013 0.000
6-04-2009 23:30 10,8 99,9 1012,9 0.000
6-04-2009 23:45 10,8 99,9 1013,2 0.000
7-04-2009 0:00 11 99,9 1013,1 0.000
7-04-2009 0:15 11,3 99,9 1013,2 0.000
7-04-2009 0:30 11,5 99,9 1012,7 0.000
7-04-2009 0:45 11,6 99,9 1013,1 0.000
7-04-2009 1:00 12 99,9 1012,8 0.000
7-04-2009 1:15 12,1 99,4 1013 0.000
7-04-2009 1:30 12,3 98,6 1013 0.000
7-04-2009 1:45 12,3 98,1 1012,3 0.000
7-04-2009 2:00 12,2 98,1 1013,2 0.000
7-04-2009 2:15 12,2 97,7 1012,4 0.000
7-04-2009 2:30 12,3 97,4 1012,4 0.000
7-04-2009 2:45 12,3 97,7 1012,7 0.000
7-04-2009 3:00 12,3 97 1011,9 0.000
7-04-2009 3:15 12,5 96 1012,6 0.000
7-04-2009 3:30 12,5 95,7 1012,3 0.000
7-04-2009 3:45 12,6 96 1012,4 0.000
7-04-2009 4:00 12,5 96,1 1012,3 0.000
7-04-2009 4:15 12,6 97,2 1012,1 0.000
7-04-2009 4:30 12,5 97,9 1011,7 0.000
7-04-2009 4:45 12,5 98 1011,9 0.000
7-04-2009 5:00 12,5 97,3 1011,8 0.000
7-04-2009 5:15 12,5 96,9 1012,3 0.000
7-04-2009 5:30 12,5 96,4 1011,8 0.000
7-04-2009 5:45 12,5 96,4 1011,6 0.000
7-04-2009 6:00 12,5 96,4 1011,8 0.000
7-04-2009 6:15 12,5 96,6 1012 0.000
7-04-2009 6:30 12,4 96 1012,3 0.000
7-04-2009 6:45 12,3 96,7 1011,7 0.000
7-04-2009 7:00 12,3 96,4 1012,2 0.000
7-04-2009 7:15 12,4 96,4 1011,7 0.000
7-04-2009 7:30 12,5 95,7 1012,5 0.000
7-04-2009 7:45 12,5 95,4 1012,1 0.000
7-04-2009 8:00 12,6 94,7 1012,5 0.000
7-04-2009 8:15 13 92,5 1012,6 0.000
7-04-2009 8:30 13,3 91,8 1012,6 0.000
7-04-2009 8:45 13,6 89,4 1012,7 0.000
7-04-2009 9:00 13,8 89,4 1012,4 0.000
7-04-2009 9:15 14,2 85,2 1012,6 0.000
7-04-2009 9:30 14,2 82,4 1012,8 0.000
7-04-2009 9:45 14,4 82,4 1013 0.000
7-04-2009 10:00 14,7 77,9 1012,7 0.000
7-04-2009 10:15 15,2 75,8 1013,1 0.000
7-04-2009 10:30 16,1 72,3 1013 0.000
7-04-2009 10:45 16 73,8 1012,8 0.000
7-04-2009 11:00 16,1 73,8 1013,1 0.000
7-04-2009 11:15 16,6 73,1 1012,8 0.000
7-04-2009 11:30 16,8 69,5 1012,8 0.000
7-04-2009 11:45 16,5 69,9 1013 0.000
7-04-2009 12:00 16,8 68,6 1012,5 0.000
7-04-2009 12:15 17,8 66,2 1012,6 0.000
7-04-2009 12:30 18,5 65,1 1012,3 0.000
7-04-2009 12:45 18,5 65,2 1012,2 0.000
7-04-2009 13:00 18,8 65,4 1012 0.000
7-04-2009 13:15 18,9 63,9 1012,3 0.000
7-04-2009 13:30 19,5 59,4 1012,2 0.000
7-04-2009 13:45 19,6 57,4 1011,6 0.000
7-04-2009 14:00 20,3 58,6 1011,6 0.000
7-04-2009 14:15 20,3 57,4 1011,7 0.000
7-04-2009 14:30 21,1 56,4 1011,5 0.000
7-04-2009 14:45 21 55,9 1010,9 0.000
7-04-2009 15:00 21,2 56,1 1010,8 0.000
7-04-2009 15:15 21,3 54,3 1011 0.000
7-04-2009 15:30 21,1 55,8 1010,5 0.000
7-04-2009 15:45 21,3 52,5 1010,9 0.000
7-04-2009 16:00 21,5 50,6 1010,7 0.000
7-04-2009 16:15 21,3 54,8 1010,5 0.000
7-04-2009 16:30 21 54,3 1010,4 0.000
7-04-2009 16:45 21,1 57,7 1010,8 0.000
7-04-2009 17:00 20,3 61,1 1010,8 0.000
7-04-2009 17:15 19,9 62,2 1011 0.000
7-04-2009 17:30 19,8 62,8 1010,9 0.000
7-04-2009 17:45 19,5 64 1011,4 0.000
7-04-2009 18:00 19,4 64,4 1011,1 0.000
7-04-2009 18:15 19 63,8 1011,2 0.000
7-04-2009 18:30 18,8 66,4 1011,6 0.000
7-04-2009 18:45 18,5 65,1 1011,2 0.000
7-04-2009 19:00 18,2 66,4 1011,6 0.000
7-04-2009 19:15 17,8 67,1 1011,6 0.000
7-04-2009 19:30 17,1 70,8 1011,8 0.000
7-04-2009 19:45 16,6 73,6 1011,8 0.000
7-04-2009 20:00 16,1 75,4 1012 0.000
7-04-2009 20:15 15,8 77,5 1012,3 0.000
7-04-2009 20:30 15,5 78,2 1012,6 0.000
7-04-2009 20:45 15,2 80 1012,8 0.000
7-04-2009 21:00 15 81,2 1012,8 0.000
7-04-2009 21:15 14,3 84 1013,2 0.000
7-04-2009 21:30 13,9 86 1013,2 0.000
7-04-2009 21:45 14,1 85 1013,7 0.000
7-04-2009 22:00 14 85,9 1014,1 0.000
7-04-2009 22:15 13,4 88,8 1013,8 0.000
7-04-2009 22:30 13,2 89,8 1014 0.000
7-04-2009 22:45 13 89,9 1014,1 0.000
7-04-2009 23:00 12,2 90,2 1014,4 0.000
7-04-2009 23:15 11,5 95 1013,6 0.000
7-04-2009 23:30 11 95,4 1014 0.000
7-04-2009 23:45 10,8 96,8 1014,4 0.000
8-04-2009 0:00 10,3 97,2 1014,7 0.000
8-04-2009 0:15 10,3 99,2 1014,1 0.000
8-04-2009 0:30 10,4 99,5 1014,5 0.000
8-04-2009 0:45 10,1 99,5 1014,3 0.000
8-04-2009 1:00 10 99,7 1014,5 0.000
8-04-2009 1:15 9,4 99,9 1014,5 0.000
8-04-2009 1:30 9,2 99,9 1014,4 0.000
8-04-2009 1:45 9,2 99,9 1014,5 0.000
8-04-2009 2:00 9,4 99,9 1014,3 0.000
8-04-2009 2:15 9,8 99,9 1014,2 0.000
8-04-2009 2:30 8,9 99,9 1014,5 0.000
8-04-2009 2:45 8,5 99,9 1014,1 0.000
8-04-2009 3:00 9 99,9 1014,2 0.000
8-04-2009 3:15 8,9 99,9 1014,1 0.000
8-04-2009 3:30 8,5 99,9 1014,4 0.000
8-04-2009 3:45 8,8 99,9 1014,3 0.000
8-04-2009 4:00 8 99,9 1014,5 0.000
8-04-2009 4:15 8,1 99,9 1014,4 0.000
8-04-2009 4:30 8,7 99,9 1014,5 0.000
8-04-2009 4:45 8,6 99,9 1014,7 0.000
8-04-2009 5:00 9 99,9 1014 0.000
8-04-2009 5:15 8,1 99,9 1014,5 0.000
8-04-2009 6:00 7,9 99,9 1013,8 0.000
8-04-2009 6:15 7,6 99,9 1014,2 0.000
8-04-2009 6:30 6,8 99,9 1014,5 0.000
8-04-2009 6:30 6,8 99,9 1014,5 0.000
8-04-2009 6:45 6,7 99,9 1014,4 0.000
8-04-2009 7:00 6,6 99,9 1014,3 0.000
8-04-2009 7:30 7 99,9 1014,4 0.000
8-04-2009 7:45 7,7 99,9 1014,5 0.000
8-04-2009 8:00 8,3 99,9 1014,9 0.000
8-04-2009 8:15 9,1 99,9 1014,7 0.000
8-04-2009 8:30 9,8 99,9 1014,9 0.000
8-04-2009 8:45 11 97,7 1014,6 0.000
8-04-2009 9:00 12 92,3 1015 0.000
8-04-2009 9:15 13,4 88,8 1014,9 0.000
8-04-2009 9:30 13,9 83,7 1014,9 0.000
8-04-2009 9:45 14,4 85,4 1015,1 0.000
8-04-2009 10:00 15,1 81,2 1015,3 0.000
8-04-2009 10:15 15,1 81,2 1015,6 0.000
8-04-2009 10:30 16,6 71,8 1015,4 0.000
8-04-2009 10:45 16,8 75,2 1015,3 0.000
8-04-2009 11:00 16,9 70,2 1015,4 0.000
8-04-2009 11:15 17,1 71,6 1015,2 0.000
8-04-2009 11:30 17,5 72,5 1015,2 0.000
8-04-2009 11:45 17,6 67,2 1015,4 0.000
8-04-2009 12:00 18,3 66,8 1015,3 0.000
8-04-2009 12:15 18,3 64,6 1015,5 0,3
8-04-2009 12:30 18,6 60 1015,2 0.000
8-04-2009 12:45 17,9 59,6 1015,4 0.000
8-04-2009 13:00 18,9 59,1 1015,1 0.000
8-04-2009 13:15 19,3 54,6 1014,7 0.000
8-04-2009 13:30 19 57,5 1014,8 0.000
8-04-2009 13:45 18,7 56,3 1014,6 0.000
8-04-2009 14:00 18,8 58,7 1014,8 0.000
8-04-2009 14:15 18,8 57,2 1014,5 0.000
8-04-2009 14:30 18,6 59,1 1014,3 0.000
8-04-2009 14:45 18,9 57,6 1014,6 0.000
8-04-2009 15:00 18,9 56,5 1014,1 0.000
8-04-2009 15:15 18,8 56,6 1014,5 0.000
8-04-2009 15:30 18,6 55,8 1014,2 0.000
8-04-2009 15:45 18,6 55,8 1013,9 0.000
8-04-2009 16:00 18,4 56,1 1014 0.000
8-04-2009 16:15 18,3 58,5 1014,2 0.000
8-04-2009 16:45 18,3 53,9 1013,7 0.000
8-04-2009 17:00 18,5 52,1 1014,2 0.000
8-04-2009 17:15 19,5 50,2 1014 0.000
8-04-2009 17:30 19,6 47,3 1013,6 0.000
8-04-2009 17:45 19,3 48,7 1013,6 0.000
8-04-2009 18:00 19,8 48,5 1013,2 0.000
8-04-2009 18:15 19,6 47,1 1013,7 0.000
8-04-2009 18:30 19 48 1013,8 0.000
8-04-2009 18:45 18,8 49,4 1013,2 0.000
8-04-2009 19:00 18,1 55,6 1013,9 0.000
8-04-2009 19:15 17,7 60,2 1013,6 0.000
8-04-2009 19:30 16,8 72,9 1014,2 0.000
8-04-2009 19:45 16,1 76,9 1013,8 0.000
8-04-2009 20:00 15,7 77,2 1013,6 0.000
8-04-2009 20:15 15,3 77,8 1014,2 0.000
8-04-2009 20:30 15 79,4 1014,5 0.000
8-04-2009 20:45 14,5 81,4 1014,6 0.000
8-04-2009 21:00 14,3 82,1 1014,7 0.000
8-04-2009 21:15 13,9 83,4 1015,1 0.000
8-04-2009 21:30 12,6 88,9 1014,8 0.000
8-04-2009 21:45 12 91,8 1015,1 0.000
8-04-2009 22:00 11,5 94 1015,2 0.000
8-04-2009 22:15 11,1 94,2 1014,7 0.000
8-04-2009 22:30 10,6 95,5 1014,8 0.000
8-04-2009 22:45 10,5 96,9 1014,8 0.000
8-04-2009 23:00 10,5 98,2 1014,7 0.000
8-04-2009 23:15 10,3 97,9 1014,8 0.000
8-04-2009 23:30 10,2 98,6 1014,9 0.000
8-04-2009 23:45 9,6 97,8 1015 0.000
9-04-2009 0:00 10,2 99,5 1015,2 0.000
9-04-2009 0:15 10,6 97,1 1014,9 0.000
9-04-2009 0:30 10 96,2 1015 0.000
9-04-2009 0:45 9,6 98,2 1015,5 0.000
9-04-2009 1:00 9,2 97 1015 0.000
9-04-2009 1:15 9,5 99,4 1014,9 0.000
9-04-2009 1:30 10 96,2 1014,8 0.000
9-04-2009 1:45 8,6 95,8 1015,4 0.000
9-04-2009 2:00 8,2 98,4 1014,8 0.000
9-04-2009 2:15 8 99,1 1014,6 0.000
9-04-2009 2:30 7,8 99,9 1014,4 0.000
9-04-2009 2:45 7,3 99,9 1014,4 0.000
9-04-2009 3:00 9 99,9 1014,3 0.000
9-04-2009 3:15 9 97,9 1014,3 0.000
9-04-2009 3:30 7,8 99 1014,1 0.000
9-04-2009 3:45 7,3 99,4 1013,9 0.000
9-04-2009 4:00 7 99,9 1014,3 0.000
9-04-2009 4:15 6,8 99,9 1014,1 0.000
9-04-2009 4:30 7,3 99,9 1014,1 0.000
9-04-2009 4:45 6,6 99,9 1014 0.000
9-04-2009 4:45 6,6 99,9 1014,2 0.000
9-04-2009 5:00 6,3 99,9 1014,4 0.000
9-04-2009 5:15 6,3 99,9 1014,1 0.000
9-04-2009 5:30 6,1 99,9 1013,7 0.000
9-04-2009 5:45 6 99,9 1013,9 0.000
9-04-2009 6:00 7 99,9 1013,9 0.000
9-04-2009 6:15 6,1 99,9 1014,3 0.000
9-04-2009 6:30 5,8 99,9 1014,5 0.000
9-04-2009 6:45 5,7 99,9 1014,3 0.000
9-04-2009 7:00 6 99,9 1014,4 0.000
9-04-2009 7:15 6,3 99,9 1014 0.000
9-04-2009 7:30 7,1 99,9 1014,6 0.000
9-04-2009 7:45 8 99,9 1014,8 0.000
9-04-2009 8:00 8,3 99,9 1014,8 0.000
9-04-2009 8:15 8,8 99,9 1014,9 0.000
9-04-2009 8:30 9,3 98,9 1015 0.000
9-04-2009 8:45 9,9 96,8 1015,1 0.000
9-04-2009 9:00 11,1 92,8 1015,1 0.000
9-04-2009 9:15 11,6 87,7 1014,8 0.000
9-04-2009 9:30 13,1 83,8 1015,2 0.000
9-04-2009 9:45 14,3 79,6 1015,1 0.000
9-04-2009 10:00 15 76,6 1014,9 0.000
9-04-2009 10:15 15,7 74,6 1015,1 0.000
9-04-2009 10:30 16,3 72,8 1015,4 0.000
9-04-2009 10:45 16,8 73 1015,2 0.000
9-04-2009 11:00 17,4 74,6 1015 0.000
9-04-2009 11:30 19,1 64,1 1015,3 0.000
9-04-2009 11:45 20,2 60,8 1015,2 0.000
9-04-2009 12:00 20,8 59,1 1014,7 0.000
9-04-2009 12:15 21 57 1014,7 0.000
9-04-2009 12:30 21,8 48,4 1014,3 0.000
9-04-2009 12:45 22,3 48,7 1014,7 0.000
9-04-2009 13:00 23 46,1 1014,1 0.000
9-04-2009 13:15 22,5 43 1013,6 0.000
9-04-2009 13:30 22,9 42,6 1013,7 0.000
9-04-2009 13:45 22,9 40 1013,6 0.000
9-04-2009 14:00 23,1 39,6 1013,2 0.000
9-04-2009 14:15 24,3 40,6 1012,6 0.000
9-04-2009 14:30 23,5 38 1012,9 0.000
9-04-2009 14:45 23,5 37,2 1012,8 0.000
9-04-2009 15:00 24 38,3 1012,3 0.000
9-04-2009 15:15 23,8 40,9 1012,5 0.000
9-04-2009 15:30 24,1 38,3 1011,5 0.000
9-04-2009 15:45 24 38,5 1011,9 0.000
9-04-2009 16:00 24 40,6 1011,5 0.000
9-04-2009 16:15 23,4 46,2 1011,2 0.000
9-04-2009 16:30 22,7 47,2 1011,2 0.000
9-04-2009 16:45 22,3 48,4 1011,1 0.000
9-04-2009 17:00 22 50,5 1011,3 0.000
9-04-2009 17:15 21,6 48,5 1011,5 0.000
9-04-2009 17:30 21 51,7 1011,3 0.000
9-04-2009 17:45 20,8 52,5 1011,5 0.000
9-04-2009 18:00 20,3 52 1012,1 0.000
9-04-2009 18:15 20 53,7 1011,7 0.000
9-04-2009 18:30 19,7 56,7 1011,6 0.000
9-04-2009 18:45 19,4 58 1012 0.000
9-04-2009 19:00 18,9 55,7 1011,9 0.000
9-04-2009 19:15 18,4 58,3 1012,4 0.000
9-04-2009 19:30 18 61,6 1011,9 0.000
9-04-2009 19:45 17,3 64,8 1011,9 0.000
9-04-2009 20:00 17 66,7 1011,9 0.000
9-04-2009 20:15 16,6 68,5 1012,2 0.000
9-04-2009 20:30 16,1 71,3 1012,1 0.000
9-04-2009 20:45 15,7 73,3 1012,4 0.000
9-04-2009 21:00 15,5 74,9 1012,8 0.000
9-04-2009 21:15 14,6 77 1012,9 0.000
9-04-2009 21:30 14,8 73,6 1013,3 0.000
9-04-2009 21:45 14,8 72,3 1013 0.000
9-04-2009 22:00 14,3 74,3 1013,8 0.000
9-04-2009 22:15 14,2 73,8 1013,3 0.000
9-04-2009 22:30 13,9 75,9 1013 0.000
9-04-2009 22:45 14,1 75,7 1013,1 0.000
9-04-2009 23:00 13,3 80,3 1013,1 0.000
9-04-2009 23:15 12,8 83,1 1012,8 0.000
9-04-2009 23:30 12,1 86,5 1013 0.000
9-04-2009 23:45 11,8 88,9 1012,9 0.000
10-04-2009 0:00 11,5 89,3 1013,1 0.000
10-04-2009 0:15 11,2 91,8 1012,8 0.000
10-04-2009 0:30 12,3 85,9 1012,8 0.000
10-04-2009 0:45 12,6 85,5 1012,7 0.000
10-04-2009 1:00 11,9 90,6 1013 0.000
10-04-2009 1:15 11,6 91,2 1012,9 0.000
10-04-2009 1:30 11,5 92,4 1012,8 0.000
10-04-2009 1:45 11,5 93,7 1012,3 0.000
10-04-2009 2:00 11,3 93,5 1012,6 0.000
10-04-2009 2:15 12,2 87,8 1012 0.000
10-04-2009 2:30 12,3 88,6 1011,6 0.000
10-04-2009 2:45 11,5 90,9 1011,9 0.000
10-04-2009 3:00 11 93,3 1011,3 0.000
10-04-2009 3:15 10,6 95,9 1011,1 0.000
10-04-2009 3:30 10,3 96,7 1011,5 0.000
10-04-2009 3:45 10,1 97,6 1011,4 0.000
10-04-2009 4:00 11,4 92,1 1011,2 0.000
10-04-2009 4:15 10,8 92,9 1011,1 0.000
10-04-2009 4:30 10,1 93,8 1010,9 0.000
10-04-2009 4:45 9,7 97,1 1011,1 0.000
10-04-2009 5:00 9,5 98,5 1010,9 0.000
10-04-2009 5:15 9,3 98,7 1011 0.000
10-04-2009 5:30 10,7 95,3 1010,6 0.000
10-04-2009 5:45 10,7 94 1011,1 0.000
10-04-2009 6:00 10,1 93,8 1010,4 0.000
10-04-2009 6:15 9,4 94,8 1010,9 0.000
10-04-2009 6:30 8,8 98,5 1010,9 0.000
10-04-2009 6:45 8,7 99,3 1011 0.000
10-04-2009 7:00 8,5 99,6 1011,2 0.000
10-04-2009 7:15 8,5 99,9 1011 0.000
10-04-2009 7:30 9 99,9 1010,7 0.000
10-04-2009 7:45 10 99,9 1010,6 0.000
10-04-2009 8:00 11,4 94,4 1010,5 0.000
10-04-2009 8:15 12,4 91,2 1010,8 0.000
10-04-2009 8:30 12,7 90,3 1010,7 0.000
10-04-2009 8:45 13,8 85,1 1011 0.000
10-04-2009 9:00 14,6 84,1 1010,6 0.000
10-04-2009 9:15 16,3 73,5 1010,2 0.000
10-04-2009 9:30 16,3 71,9 1010,8 0.000
10-04-2009 9:45 16,5 72,2 1010,5 0.000
10-04-2009 10:00 16,7 69,6 1010,8 0.000
10-04-2009 10:15 17,1 68 1010,4 0.000
10-04-2009 10:30 18,6 59,4 1010,4 0.000
10-04-2009 10:45 19,3 60,2 1010,1 0.000
10-04-2009 11:00 20,3 54,1 1010,4 0.000
10-04-2009 11:15 20,8 52,6 1009,8 0.000
10-04-2009 11:30 20,8 51,4 1009,9 0.000
10-04-2009 11:45 21,6 49,2 1009,8 0.000
10-04-2009 12:00 21,2 54,3 1009,7 0.000
10-04-2009 12:15 22 50,8 1009,3 0.000
10-04-2009 12:30 21,8 52,7 1009,3 0.000
10-04-2009 12:45 22,2 52,2 1009,4 0.000
10-04-2009 13:00 22,8 47,2 1009,1 0.000
10-04-2009 13:15 22,8 45 1008,8 0.000
10-04-2009 13:30 22,6 45,3 1008,9 0.000
10-04-2009 13:45 22,5 48,7 1008,8 0.000
10-04-2009 14:00 22 53,9 1008,5 0.000
10-04-2009 14:15 22,5 51,1 1008,3 0.000
10-04-2009 14:30 22,5 54 1008,5 0.000
10-04-2009 14:45 23 46,7 1008,2 0.000
10-04-2009 15:00 22,8 50,3 1008,3 0.000
10-04-2009 15:15 19,6 54,4 1008,6 0.000
10-04-2009 15:30 18,5 64 1008,6 0.000
10-04-2009 15:45 19,4 61,6 1008,3 0.000
10-04-2009 16:00 20,2 57,9 1008,4 0.000
10-04-2009 16:15 20,4 55,6 1008,4 0.000
10-04-2009 16:30 20,6 54,4 1008,5 0.000
10-04-2009 16:45 20,2 51,4 1008,3 0.000
10-04-2009 17:00 19,8 52,1 1008,1 0.000
10-04-2009 17:15 20,1 53 1008,5 0.000
10-04-2009 17:30 20,4 46,1 1008,1 0.000
10-04-2009 17:45 20,4 52,9 1008,4 0.000
10-04-2009 18:00 20,5 50,6 1008 0.000
10-04-2009 18:15 20 50,9 1008,3 0.000
10-04-2009 18:30 19,6 52,9 1008,5 0.000
10-04-2009 18:45 19,1 55 1008,4 0.000
10-04-2009 19:00 18,8 55,5 1008,4 0.000
10-04-2009 19:15 18,1 57,9 1008,6 0.000
10-04-2009 19:30 17,5 59,4 1008,5 0.000
10-04-2009 19:45 16,6 64,4 1008,6 0.000
10-04-2009 20:00 16,2 66,5 1008,4 0.000
10-04-2009 20:15 15,3 72,2 1008,6 0.000
10-04-2009 20:30 14,6 70,5 1008,6 0.000
10-04-2009 20:45 14,5 74,8 1008,9 0.000
10-04-2009 21:00 14,3 72,2 1008,9 0.000
10-04-2009 21:15 14,5 72,8 1008,8 0.000
10-04-2009 21:30 13,9 80 1009,1 0.000
10-04-2009 21:45 14 75,9 1009,1 0.000
10-04-2009 22:00 15,1 69,1 1009,6 0.000
10-04-2009 22:15 15,3 70 1009,4 0.000
10-04-2009 22:30 15 75,1 1009,3 0.000
10-04-2009 22:45 14,8 73,8 1009,4 0.000
10-04-2009 23:00 15,8 67,8 1009,6 0.000
10-04-2009 23:15 15,8 68,3 1009,3 0.000
10-04-2009 23:30 15,2 75,8 1009,5 0.000
10-04-2009 23:45 14,6 78,5 1009,7 0.000
11-04-2009 0:00 14,3 78 1009,3 0.000
11-04-2009 0:15 15,2 72,8 1009,3 0.000
11-04-2009 0:30 15,5 71,5 1009,4 0.000
11-04-2009 0:45 15,5 71,4 1009,4 0.000
11-04-2009 1:00 15,1 73,8 1009,5 0.000
11-04-2009 1:15 14,6 76,7 1009,4 0.000
11-04-2009 1:30 14 79,1 1009 0.000
11-04-2009 1:45 14,2 79 1008,9 0.000
11-04-2009 2:00 14,3 78,9 1009 0.000
11-04-2009 2:15 14,1 82,5 1008,9 0.000
11-04-2009 2:30 14,1 84 1009 0.000
11-04-2009 2:45 14,1 85,6 1008,7 0.000
11-04-2009 3:00 13,9 86,9 1008,8 0.000
11-04-2009 3:15 13,8 87,7 1008,7 0.000
11-04-2009 3:30 13,7 87,8 1008,5 0.000
11-04-2009 3:45 13,6 88,1 1008,6 0.000
11-04-2009 4:00 13,6 86,4 1008,6 0.000
11-04-2009 4:15 13,6 85,8 1008,6 0.000
11-04-2009 4:30 13,6 86,1 1008,6 0.000
11-04-2009 4:45 13,6 86 1008,6 0.000
11-04-2009 5:00 13,8 84,3 1008,7 0.000
11-04-2009 5:15 13,8 84,7 1008,5 0.000
11-04-2009 5:30 13,6 85,6 1008,5 0.000
11-04-2009 5:45 13,5 86,6 1008,4 0.000
11-04-2009 6:00 13,6 87 1008,3 0.000
11-04-2009 6:15 13,6 86,9 1008,6 0.000
11-04-2009 6:30 13,3 88,2 1008,7 0.000
11-04-2009 6:45 13,3 89 1008,7 0.000
11-04-2009 7:00 13,3 88,6 1008,7 0.000
11-04-2009 7:15 13,3 89 1008,7 0.000
11-04-2009 7:30 13,4 89,1 1008,6 0.000
11-04-2009 7:45 13,7 87,3 1008,8 0.000
11-04-2009 8:00 14,3 84,3 1008,9 0.000
11-04-2009 8:15 14,7 81,4 1009 0.000
11-04-2009 8:30 14,8 81,5 1008,8 0.000
11-04-2009 8:45 14,7 81 1009,1 0.000
11-04-2009 9:00 14,8 80 1008,9 0.000
11-04-2009 9:15 15,2 78 1009 0.000
11-04-2009 9:30 15,8 76,3 1009 0.000
11-04-2009 9:45 15,8 73,9 1009,1 0.000
11-04-2009 10:00 16,7 69,3 1008,8 0.000
11-04-2009 10:15 16,9 66,8 1009 0.000
11-04-2009 10:30 18,1 60,2 1009,2 0.000
11-04-2009 10:45 18,1 60,7 1009,1 0.000
11-04-2009 11:00 19 53,2 1009 0.000
11-04-2009 11:15 18,8 55,5 1008,9 0.000
11-04-2009 11:30 19,1 55,3 1008,8 0.000
11-04-2009 11:45 19,2 55 1008,8 0.000
11-04-2009 12:00 19,6 54,7 1008,7 0.000
11-04-2009 12:15 19,9 46,5 1009 0.000
11-04-2009 12:30 20,3 43,4 1008,7 0.000
11-04-2009 12:45 21,2 39,8 1008,7 0.000
11-04-2009 13:00 20,8 38,7 1008,7 0.000
11-04-2009 13:15 21 38,4 1008,5 0.000
11-04-2009 13:30 22,3 35,3 1008,4 0.000
11-04-2009 13:45 21,7 38,6 1008,1 0.000
11-04-2009 14:00 21,6 37,4 1008,2 0.000
11-04-2009 14:15 22 37,4 1008,1 0.000
11-04-2009 14:30 22,1 39,1 1008 0.000
11-04-2009 14:45 22,6 37,3 1007,6 0.000
11-04-2009 15:00 23,3 36,4 1007,8 0.000
11-04-2009 15:15 23 38,5 1007,7 0.000
11-04-2009 15:30 22,8 38,7 1007,5 0.000
11-04-2009 15:45 22,8 36,9 1007,4 0.000
11-04-2009 16:00 22,7 40,8 1007,3 0.000
11-04-2009 16:15 22,4 38,2 1007,5 0.000
11-04-2009 16:30 21,9 38,8 1007,2 0.000
11-04-2009 16:45 22,1 40,4 1007,3 0.000
11-04-2009 17:00 22 42,5 1007,3 0.000
11-04-2009 17:15 21,7 40,2 1007,2 0.000
11-04-2009 17:30 21,6 40,7 1007,4 0.000
11-04-2009 17:45 20,5 49,4 1007,6 0.000
11-04-2009 18:00 19,6 51,6 1007,9 0.000
11-04-2009 18:15 19,1 48,6 1008,1 0.000
11-04-2009 18:30 18,6 48,4 1008,1 0.000
11-04-2009 18:45 18,5 52,2 1008,2 0.000
11-04-2009 19:00 18,4 51,9 1008,2 0.000
11-04-2009 19:15 18,3 50,1 1008,1 0.000
11-04-2009 19:30 18 50,4 1008,2 0.000
11-04-2009 19:45 17,6 51,1 1008,2 0.000
11-04-2009 20:00 17,3 52,9 1008,2 0.000
11-04-2009 20:15 17,1 58 1008,4 0.000
11-04-2009 20:30 16,6 59,5 1008,5 0.000
11-04-2009 20:45 15,5 70,9 1008,4 0.000
11-04-2009 21:00 14,6 70,8 1008,5 0.000
11-04-2009 21:15 14 74,7 1008,5 0.000
11-04-2009 21:30 13,6 74,2 1008,7 0.000
11-04-2009 21:45 13,3 75,6 1008,5 0.000
11-04-2009 22:00 13 79,7 1008,8 0.000
11-04-2009 22:15 12,8 81,7 1008,9 0.000
11-04-2009 22:30 12,7 82,2 1008,6 0.000
11-04-2009 22:45 12,9 83,5 1008,5 0.000
11-04-2009 23:00 12,9 79,5 1008,3 0.000
11-04-2009 23:15 13,8 74,2 1008,5 0.000
11-04-2009 23:30 14,3 71,9 1008,4 0.000
11-04-2009 23:45 14,1 71,5 1008,3 0.000
12-04-2009 0:00 13,9 73,8 1008,5 0.000
12-04-2009 0:15 13,7 72 1008,3 0.000
12-04-2009 0:30 13,8 71,1 1008,5 0.000
12-04-2009 0:45 13,8 70,7 1008 0.000
12-04-2009 1:00 13,6 71,1 1008 0.000
12-04-2009 1:15 13,3 74,6 1007,9 0.000
12-04-2009 1:30 12,3 82,2 1007,9 0.000
12-04-2009 1:45 11,8 84,4 1007,8 0.000
12-04-2009 2:00 11,3 87,2 1007,8 0.000
12-04-2009 2:15 11,2 89,3 1007,6 0.000
12-04-2009 2:30 10,9 90,2 1007,2 0.000
12-04-2009 2:45 11 89,2 1007,2 0.000
12-04-2009 3:00 11,1 86,5 1007,1 0.000
12-04-2009 3:15 11,7 82,4 1007,2 0.000
12-04-2009 3:30 12 80,9 1007,1 0.000
12-04-2009 3:45 12,4 78,3 1006,7 0.000
12-04-2009 4:00 12,3 80,2 1006,8 0.000
12-04-2009 4:15 12,3 80,2 1007 0.000
12-04-2009 4:30 12,3 80,6 1006,8 0.000
12-04-2009 4:45 11,9 85 1006,5 0.000
12-04-2009 5:00 11,4 86,1 1006,1 0.000
12-04-2009 5:15 11,2 89,3 1006,5 0.000
12-04-2009 5:30 11,2 90 1006,3 0.000
12-04-2009 5:45 11,2 91,3 1006,6 0.000
12-04-2009 6:00 11,8 88,5 1006,3 0.000
12-04-2009 6:15 11,9 87,2 1006,1 0.000
12-04-2009 6:30 11,5 89,6 1006,2 0.000
12-04-2009 6:45 11,5 90,9 1006,4 0.000
12-04-2009 7:00 11,5 90,3 1006,4 0.000
12-04-2009 7:15 11,5 91,2 1006,4 0.000
12-04-2009 7:30 11,6 90,5 1006,1 0.000
12-04-2009 7:45 11,8 89,1 1006 0.000
12-04-2009 8:00 12,1 87,7 1005,6 0.000
12-04-2009 8:15 12,6 87,9 1006,2 0.000
12-04-2009 8:30 13 86,3 1005,6 0.000
12-04-2009 8:45 13,5 85,8 1005,6 0.000
12-04-2009 9:00 14,2 80,9 1005,2 0.000
12-04-2009 9:15 15,1 75,1 1005,4 0.000
12-04-2009 9:30 15,5 73,7 1005,4 0.000
12-04-2009 9:45 16,2 72,6 1005,4 0.000
12-04-2009 10:00 17,1 67,9 1005 0.000
12-04-2009 10:15 17,6 65,5 1005,1 0.000
12-04-2009 10:30 18 61,9 1004,7 0.000
12-04-2009 10:45 19,1 57,8 1004,8 0.000
12-04-2009 11:00 19,4 56,7 1004,8 0.000
12-04-2009 11:15 19,7 54,9 1004,5 0.000
12-04-2009 11:30 20,1 53,4 1004,7 0.000
12-04-2009 11:45 20,3 51,7 1004,2 0.000
12-04-2009 12:00 20,6 49,3 1004,2 0.000
12-04-2009 12:15 21 47,4 1003,8 0.000
12-04-2009 12:30 21,5 46,7 1003,7 0.000
12-04-2009 12:45 21,3 44,7 1003,4 0.000
12-04-2009 13:00 21,9 43,7 1003,7 0.000
12-04-2009 13:15 22,3 43,7 1003,4 0.000
12-04-2009 13:30 22,1 42,4 1002,9 0.000
12-04-2009 13:45 22,4 40,9 1002,6 0.000
12-04-2009 14:00 22,6 40,5 1002,8 0.000
12-04-2009 14:15 22 39,1 1002,4 0.000
12-04-2009 14:30 22,3 39,5 1002,6 0.000
12-04-2009 14:45 22,6 40,2 1002,2 0.000
12-04-2009 15:00 22,3 39,7 1002,1 0.000
12-04-2009 15:15 22,7 38,8 1002 0.000
12-04-2009 15:30 22,5 39,2 1001,9 0.000
12-04-2009 15:45 22,5 38,5 1001,8 0.000
12-04-2009 16:00 22,5 38,9 1001,5 0.000
12-04-2009 16:15 22,1 40,1 1001,7 0.000
12-04-2009 16:30 22 40,4 1001,4 0.000
12-04-2009 16:45 21,7 42,9 1001,3 0.000
12-04-2009 17:00 21,6 43,4 1001,4 0.000
12-04-2009 17:15 21,5 42,8 1000,9 0.000
12-04-2009 17:30 21,3 42,6 1001,3 0.000
12-04-2009 17:45 21,1 45,1 1001,2 0.000
12-04-2009 18:00 20,7 45,9 1001,2 0.000
12-04-2009 18:15 20,4 47,3 1001,2 0.000
12-04-2009 18:30 20,1 48,1 1001,3 0.000
12-04-2009 18:45 20 48,6 1001,1 0.000
12-04-2009 19:00 19,6 50,5 1001 0.000
12-04-2009 19:15 19,2 52,2 1001,6 0.000
12-04-2009 19:30 18,9 53,5 1001,7 0.000
12-04-2009 19:45 18,6 54,2 1001,6 0.000
12-04-2009 20:00 18,3 55,6 1001,6 0.000
12-04-2009 20:15 18,2 55,2 1001,8 0.000
12-04-2009 20:30 18,1 55,3 1002 0.000
12-04-2009 20:45 17,7 56,5 1002 0.000
12-04-2009 21:00 17,5 57,5 1002,2 0.000
12-04-2009 21:15 17,3 57,2 1002,5 0.000
12-04-2009 21:30 17,1 57 1002,4 0.000
12-04-2009 21:45 16,9 57,6 1002,2 0.000
12-04-2009 22:00 16,8 57,3 1001,9 0.000
12-04-2009 22:15 16,7 55,3 1002,5 0.000
12-04-2009 22:30 16,5 55,4 1002,3 0.000
12-04-2009 22:45 16,5 54 1002,2 0.000
12-04-2009 23:00 16,3 52,3 1002 0.000
12-04-2009 23:15 16,1 52 1002 0.000
12-04-2009 23:30 16,5 50,2 1001,6 0.000
12-04-2009 23:45 16,5 50,7 1001,5 0.000
13-04-2009 0:00 16,5 49,5 1001,9 0.000
13-04-2009 0:15 16,5 50,1 1002,1 0.000
13-04-2009 0:30 16,4 49,3 1002 0.000
13-04-2009 0:45 16,5 49,1 1002,1 0.000
13-04-2009 1:00 16,3 48,6 1001,7 0.000
13-04-2009 1:15 16,3 49,5 1002 0.000
13-04-2009 1:30 16,3 50,4 1002 0.000
13-04-2009 1:45 16 51,5 1002 0.000
13-04-2009 2:00 15,8 52,7 1002,1 0.000
13-04-2009 2:15 15,9 52,6 1001,6 0.000
13-04-2009 2:30 16 52,3 1001,7 0.000
13-04-2009 2:45 16 52,3 1001,5 0.000
13-04-2009 3:00 15,7 53,3 1001,5 0.000
13-04-2009 3:15 15,5 54 1001,4 0.000
13-04-2009 3:30 14,2 61,6 1001,2 0.000
13-04-2009 3:45 13 64,8 1001,2 0.000
13-04-2009 4:00 13 65,1 1001,1 0.000
13-04-2009 4:15 11,8 71,3 1001 0.000
13-04-2009 4:30 10,8 75,4 1000,8 0.000
13-04-2009 4:45 11,3 72,4 1000,7 0.000
13-04-2009 5:00 12,1 67,9 1000,8 0.000
13-04-2009 5:15 12,6 65,1 1000,6 0.000
13-04-2009 5:30 14,2 55,8 1000,5 0.000
13-04-2009 5:45 14,6 53,3 1000,5 0.000
13-04-2009 6:00 13,7 58,3 1000 0.000
13-04-2009 6:15 12,7 62,3 1000,4 0.000
13-04-2009 6:30 13 59,9 1000,2 0.000
13-04-2009 6:45 13,5 58,1 999,9 0.000
13-04-2009 7:00 13,1 61,9 1000,2 0.000
13-04-2009 7:15 13 62,3 1000,5 0.000
13-04-2009 7:30 13,8 59,3 1000,2 0.000
13-04-2009 7:45 15 56,5 1000,2 0.000
13-04-2009 8:00 15,6 55,4 1000,5 0.000
13-04-2009 8:15 16,1 52,6 1000,2 0.000
13-04-2009 8:30 16,9 50,4 1000,4 0.000
13-04-2009 8:45 17,2 48,4 1000,1 0.000
13-04-2009 9:00 17,6 48,7 1000 0.000
13-04-2009 9:15 18 47,3 1000,2 0.000
13-04-2009 9:30 18,2 47 1000,2 0.000
13-04-2009 9:45 18,6 45,7 1000 0.000
13-04-2009 10:00 19 44,4 1000,2 0.000
13-04-2009 10:15 19,5 43,7 1000,1 0.000
13-04-2009 10:30 20,1 42,5 1000,2 0.000
13-04-2009 10:45 20,5 40,3 999,6 0.000
13-04-2009 11:00 20,8 39,1 999,9 0.000
13-04-2009 11:15 21,1 39,1 1000,3 0.000
13-04-2009 11:30 21,3 38,9 1000,3 0.000
13-04-2009 11:45 21,9 38,5 999,9 0.000
13-04-2009 12:00 22,4 35,2 999,8 0.000
13-04-2009 12:15 22,4 34,9 999,9 0.000
13-04-2009 12:30 22,8 33,4 999,9 0.000
13-04-2009 12:45 22,8 33,2 999,7 0.000
13-04-2009 13:00 22,8 33,5 999,8 0.000
13-04-2009 13:15 22,6 34,3 999,8 0.000
13-04-2009 13:30 22 35,8 999,4 0.000
13-04-2009 13:45 21,7 35,7 999,7 0.000
13-04-2009 14:00 20,8 39,4 999,8 0.000
13-04-2009 14:15 21,1 38,4 999,6 0.000
13-04-2009 14:30 21,1 36,6 999,5 0.000
13-04-2009 14:45 21,2 37,3 999,5 0.000
13-04-2009 15:00 21,5 37,2 999,4 0.000
13-04-2009 15:15 22 37,4 999,4 0.000
13-04-2009 15:30 22,2 36,7 999,1 0.000
13-04-2009 15:45 23,4 35,2 999,4 0.000
13-04-2009 16:00 22,8 35,4 999,1 0.000
13-04-2009 16:15 22,6 35,9 998,7 0.000
13-04-2009 16:30 23 34,5 999 0.000
13-04-2009 16:45 23,6 34,3 998,9 0.000
13-04-2009 17:00 23,7 33,5 998,6 0.000
13-04-2009 17:15 23,7 33,1 998,7 0.000
13-04-2009 17:30 23,3 32,2 999 0.000
13-04-2009 17:45 22,6 33,2 998,9 0.000
13-04-2009 18:00 22,3 34,3 998,8 0.000
13-04-2009 18:15 22 37,7 999 0.000
13-04-2009 18:30 22,1 36,7 999,2 0.000
13-04-2009 18:45 22,1 35,6 999,3 0.000
13-04-2009 19:00 21,5 36,6 999,4 0.000
13-04-2009 19:15 21 38,2 999,4 0.000
13-04-2009 19:30 20,2 40,9 999,6 0.000
13-04-2009 19:45 20,1 41,5 999,6 0.000
13-04-2009 20:00 19,7 43,2 999,9 0.000
13-04-2009 20:15 19,1 45 1000,2 0.000
13-04-2009 20:30 16,9 55,9 1000 0.000
13-04-2009 20:45 15,5 60,4 1000,9 0.000
13-04-2009 21:00 14,5 62,6 1000,9 0.000
13-04-2009 21:15 13,7 68,4 1000,8 0.000
13-04-2009 21:30 14,9 63 1001,3 0.000
13-04-2009 21:45 15,1 62 1001,8 0.000
13-04-2009 22:00 13,9 69,9 1002 0.000
13-04-2009 22:15 13 73,1 1001,7 0.000
13-04-2009 22:30 12,2 78,3 1002 0.000
13-04-2009 22:45 12 78,2 1001,8 0.000
13-04-2009 23:00 11,8 78,6 1002,3 0.000
13-04-2009 23:15 11,6 80,4 1002,2 0.000
13-04-2009 23:30 11,1 83,1 1002,4 0.000
13-04-2009 23:45 10,8 83 1002,7 0.000
14-04-2009 0:00 10,4 84 1002,9 0.000
14-04-2009 0:15 10,6 78,9 1003,2 0.000
14-04-2009 0:30 11,5 76,1 1003,1 0.000
14-04-2009 0:45 10,8 78,9 1003,1 0.000
14-04-2009 1:00 10,5 82 1003,5 0.000
14-04-2009 1:15 10,2 82,3 1003,3 0.000
14-04-2009 1:30 10,3 81,3 1003,2 0.000
14-04-2009 1:45 10 82,5 1003,3 0.000
14-04-2009 2:00 9,7 84,3 1003,9 0.000
14-04-2009 2:15 9,5 85,9 1003,5 0.000
14-04-2009 2:30 10,7 77,7 1003,6 0.000
14-04-2009 2:45 10,8 76,9 1003,4 0.000
14-04-2009 3:00 13,6 62,4 1003,1 0.000
14-04-2009 3:15 14,6 59,2 1003,7 0.000
14-04-2009 3:30 13,4 65 1003,7 0.000
14-04-2009 3:45 12,1 69,6 1003,9 0.000
14-04-2009 4:00 11,5 72,1 1003,7 0.000
14-04-2009 4:15 10,3 78,8 1003,7 0.000
14-04-2009 4:30 9,3 82,8 1004 0.000
14-04-2009 4:45 8,8 85,9 1004,2 0.000
14-04-2009 5:00 8,6 86,9 1004 0.000
14-04-2009 5:15 8,7 86,6 1004,1 0.000
14-04-2009 5:30 9,6 82,1 1004,3 0.000
14-04-2009 5:45 12,1 69,1 1004,2 0.000
14-04-2009 6:00 12,1 70,4 1004 0.000
14-04-2009 6:15 10,8 76,1 1004 0.000
14-04-2009 6:30 10,5 78,1 1004,3 0.000
14-04-2009 6:45 10,5 78 1003,9 0.000
14-04-2009 7:00 9,9 81,3 1004,4 0.000
14-04-2009 7:15 9,1 84,7 1004,6 0.000
14-04-2009 7:30 9,5 84,6 1004,5 0.000
14-04-2009 7:45 10,1 85 1004,3 0.000
14-04-2009 8:00 11,5 78 1004,6 0.000
14-04-2009 8:15 12,8 74,7 1004,6 0.000
14-04-2009 8:30 13,6 73 1004,8 0.000
14-04-2009 8:45 14,2 66,4 1005,3 0.000
14-04-2009 9:00 15,7 65,7 1005,1 0.000
14-04-2009 9:15 16,8 57,7 1004,8 0.000
14-04-2009 9:30 17,6 56,6 1005 0.000
14-04-2009 9:45 17,8 53,2 1004,7 0.000
14-04-2009 10:00 18,8 51,2 1004,9 0.000
14-04-2009 10:15 19 48,7 1004,9 0.000
14-04-2009 10:30 19,1 49,2 1005,2 0.000
14-04-2009 10:45 19,1 48,3 1004,9 0.000
14-04-2009 11:00 19,6 46,8 1005,3 0.000
14-04-2009 11:15 20 45,2 1005 0.000
14-04-2009 11:30 20,6 43,8 1005 0.000
14-04-2009 11:45 21,3 41,7 1004,7 0.000
14-04-2009 12:00 21,1 42 1004,7 0.000
14-04-2009 12:15 21,3 42,3 1004,4 0.000
14-04-2009 12:30 21,5 40,1 1004,9 0.000
14-04-2009 12:45 22,2 39,5 1004,7 0.000
14-04-2009 13:00 22,3 41,5 1004,6 0.000
14-04-2009 13:15 22,3 40,1 1004 0.000
14-04-2009 13:30 22,5 39,1 1003,9 0.000
14-04-2009 13:45 22,8 37,5 1004,2 0.000
14-04-2009 14:00 23 35,7 1004 0.000
14-04-2009 14:15 23,3 37,5 1004,1 0.000
14-04-2009 14:30 23,3 37,9 1004,3 0.000
14-04-2009 14:45 22,9 39 1004 0.000
14-04-2009 15:00 22,6 37,6 1004,1 0.000
14-04-2009 15:15 22,6 38 1004,2 0.000
14-04-2009 15:30 22,6 39 1004,3 0.000
14-04-2009 15:45 22,7 38,8 1004,4 0.000
14-04-2009 16:00 22,5 41,5 1004,1 0.000
14-04-2009 16:15 22,8 40,5 1004 0.000
14-04-2009 16:30 22,1 42,4 1004 0.000
14-04-2009 16:45 22 40,7 1004,5 0.000
14-04-2009 17:00 21,7 41,7 1004,3 0.000
14-04-2009 17:15 21,6 42,2 1004,5 0.000
14-04-2009 17:30 21,3 42,8 1004,7 0.000
14-04-2009 17:45 21,1 40,9 1004,8 0.000
14-04-2009 18:00 21,1 41,1 1005,1 0.000
14-04-2009 18:15 20,9 40,2 1004,9 0.000
14-04-2009 18:30 20,5 41,9 1005,3 0.000
14-04-2009 18:45 19,6 43,2 1005,5 0.000
14-04-2009 19:00 19,2 45,7 1005,4 0.000
14-04-2009 19:15 18,6 50,2 1005,5 0.000
14-04-2009 19:30 18,1 51,4 1005,4 0.000
14-04-2009 19:45 17,6 53,3 1005,8 0.000
14-04-2009 20:00 17,2 53,9 1005,8 0.000
14-04-2009 20:15 16,6 57,8 1006,1 0.000
14-04-2009 20:30 16 57,9 1006,2 0.000
14-04-2009 20:45 15,5 59,3 1006,1 0.000
14-04-2009 21:00 15,1 62,4 1006,8 0.000
14-04-2009 21:15 14,1 67,3 1006,7 0.000
14-04-2009 21:30 13,5 71,8 1006,9 0.000
14-04-2009 21:45 12,8 73,3 1007 0.000
14-04-2009 22:00 13,1 70,6 1007,5 0.000
14-04-2009 22:15 12,6 73,7 1007,6 0.000
14-04-2009 22:30 12 78,1 1007,8 0.000
14-04-2009 22:45 11,2 81 1007,7 0.000
14-04-2009 23:00 11 82,5 1008 0.000
14-04-2009 23:15 10,6 85,5 1008,2 0.000
14-04-2009 23:30 11 84,8 1008,2 0.000
14-04-2009 23:45 11,1 85,1 1008,3 0.000
15-04-2009 0:00 11 85 1008,4 0.000
15-04-2009 0:15 10,8 86,5 1008,3 0.000
15-04-2009 0:30 10,4 89 1008,5 0.000
15-04-2009 0:45 10,3 90,3 1008,6 0.000
15-04-2009 1:00 9,9 92,4 1008,8 0.000
15-04-2009 1:15 9,8 93,7 1008,8 0.000
15-04-2009 1:30 10,5 92,2 1008,8 0.000
15-04-2009 1:45 10,1 92,1 1008,8 0.000
15-04-2009 2:00 10,5 92,7 1008,9 0.000
15-04-2009 2:15 9,8 95,2 1008,8 0.000
15-04-2009 2:30 10,8 99,3 1009,1 0.000
15-04-2009 2:45 11,3 97,9 1009 0.000
15-04-2009 3:00 11,5 97,8 1009,3 0.000
15-04-2009 3:15 11,3 97,4 1008,8 0.000
15-04-2009 3:30 11,5 97,7 1009,1 0.000
15-04-2009 3:45 11,6 96,2 1009 0.000
15-04-2009 4:00 11,6 95,5 1009,2 0.000
15-04-2009 4:15 11,7 95,2 1009 0.000
15-04-2009 4:30 11,8 92,9 1009,2 0.000
15-04-2009 4:45 12 92,2 1009 0.000
15-04-2009 5:00 11,1 95,4 1009,1 0.000
15-04-2009 5:15 10,6 95,9 1009 0.000
15-04-2009 5:30 10,9 97 1009,3 0.000
15-04-2009 5:45 11,2 94,8 1009,3 0.000
15-04-2009 6:00 11,6 91,5 1009,3 0.000
15-04-2009 6:15 11,7 94,8 1009,5 0.000
15-04-2009 6:30 11,6 94,3 1009,4 0.000
15-04-2009 6:45 11,6 93,9 1009,6 0.000
15-04-2009 7:00 11,6 93,9 1009,4 0.000
15-04-2009 7:15 11,8 94,5 1009,4 0.000
15-04-2009 7:30 12,1 90 1009,7 0.000
15-04-2009 7:45 12,3 90,2 1010 0.000
15-04-2009 8:00 12,8 91,3 1009,9 0.000
15-04-2009 8:15 13,1 91,7 1010,3 0.000
15-04-2009 8:30 13,4 91,3 1010,3 0.000
15-04-2009 8:45 13,6 90 1010,6 0.000
15-04-2009 9:00 13,9 89 1010,4 0.000
15-04-2009 9:15 14,3 86,9 1010,2 0.000
15-04-2009 9:30 14,8 83,4 1010,2 0.000
15-04-2009 9:45 15,1 82,6 1011,2 0.000
15-04-2009 10:00 15,3 80,1 1010,5 0.000
15-04-2009 10:15 15,3 79,3 1010,8 0.000
15-04-2009 10:30 16,1 76,6 1010,5 0.000
15-04-2009 10:45 16,3 74,4 1010,2 0.000
15-04-2009 11:00 17 71 1010,8 0.000
15-04-2009 11:15 17,3 70,4 1010,9 0.000
15-04-2009 11:30 17,6 68,8 1010,3 0.000
15-04-2009 11:45 18,2 67,9 1010,7 0.000
15-04-2009 12:00 18,6 66,3 1010,3 0.000
15-04-2009 12:15 18,6 67,8 1010,4 0.000
15-04-2009 12:30 19,5 63,7 1010,3 0.000
15-04-2009 12:45 20 61,5 1009,9 0.000
15-04-2009 13:00 20,2 63,2 1010,2 0.000
15-04-2009 13:15 20,5 59,2 1010,2 0.000
15-04-2009 13:30 21,3 59,3 1009,7 0.000
15-04-2009 13:45 21,3 58,1 1009,8 0.000
15-04-2009 14:00 21,5 57,6 1010 0.000
15-04-2009 14:15 22,1 50,9 1009,5 0.000
15-04-2009 14:30 22,3 54,1 1009,4 0.000
15-04-2009 14:45 22,5 50,2 1009,8 0.000
15-04-2009 15:00 22,9 46,4 1009,5 0.000
15-04-2009 15:15 23,1 46,7 1009,4 0.000
15-04-2009 15:30 23,8 42,2 1009,2 0.000
15-04-2009 15:45 23,5 38,3 1009,1 0.000
15-04-2009 16:00 23,5 44,3 1009,3 0.000
15-04-2009 16:15 23,2 47,3 1009,1 0.000
15-04-2009 16:30 23 50,9 1009,2 0.000
15-04-2009 16:45 23 49,8 1009,2 0.000
15-04-2009 17:00 22,5 50,5 1009,3 0.000
15-04-2009 17:15 22,5 51,4 1009,3 0.000
15-04-2009 17:30 22,1 47,5 1009,1 0.000
15-04-2009 17:45 21,9 44,8 1009,2 0.000
15-04-2009 18:00 21,5 47,3 1009,6 0.000
15-04-2009 18:15 21 49,2 1009,7 0.000
15-04-2009 18:30 20,1 54,2 1009,6 0.000
15-04-2009 18:45 19,4 56,2 1009,7 0.000
15-04-2009 19:00 18,8 59,4 1009,5 0.000
15-04-2009 19:15 18,5 62,4 1009,7 0.000
15-04-2009 19:30 18,1 62 1009,7 0.000
15-04-2009 19:45 17,7 63,8 1009,6 0.000
15-04-2009 20:00 17,3 65,5 1010 0.000
15-04-2009 20:15 17,1 66,4 1009,8 0.000
15-04-2009 20:30 17 66,4 1010,3 0.000
15-04-2009 20:45 16,5 67,9 1010,5 0.000
15-04-2009 21:00 16 71,3 1010,9 0.000
15-04-2009 21:15 15,6 73,3 1011,3 0.000
15-04-2009 21:30 15 75,6 1011 0.000
15-04-2009 21:45 13,5 80,7 1011,8 0.000
15-04-2009 22:00 12,7 86 1011,1 0.000
15-04-2009 22:15 12,3 86,7 1011,7 0.000
15-04-2009 22:30 11,8 90,3 1011,2 0.000
15-04-2009 22:45 11,5 90,8 1011,7 0.000
15-04-2009 23:00 11,1 92,6 1011,7 0.000
15-04-2009 23:15 10,8 94,5 1011,4 0.000
15-04-2009 23:30 10,5 93,8 1011 0.000
15-04-2009 23:45 10,5 96,5 1011,4 0.000
16-04-2009 0:00 10,2 96,6 1011,4 0.000
16-04-2009 0:00 10,2 96,6 1011,4 0.000
16-04-2009 0:15 10 97,1 1011,7 0.000
16-04-2009 0:30 10,5 97,9 1010,9 0.000
16-04-2009 0:45 11,5 91,5 1011 0.000
16-04-2009 1:00 10,7 91,2 1011,1 0.000
16-04-2009 1:15 10 93,2 1011 0.000
16-04-2009 1:30 11,2 91,8 1010,6 0.000
16-04-2009 1:45 11,5 90,2 1010,1 0.000
16-04-2009 2:00 10,2 92,5 1010,2 0.000
16-04-2009 2:15 9,6 93,7 1010 0.000
16-04-2009 2:30 9 97,2 1009,8 0.000
16-04-2009 2:45 8,7 98,9 1010,3 0.000
16-04-2009 3:00 8,8 99,9 1010,2 0.000
16-04-2009 3:15 8,8 99,9 1010,7 0.000
16-04-2009 3:30 9,6 99,9 1011 0.000
16-04-2009 3:45 10,5 95,2 1010,3 0.000
16-04-2009 4:00 10,9 92,9 1010,1 0.000
16-04-2009 4:15 11,3 89,3 1010 0.000
16-04-2009 4:30 11 90,1 1010,1 0.000
16-04-2009 4:45 10,9 91 1010,3 0.000
16-04-2009 5:00 10,9 90,7 1010,3 0.000
16-04-2009 5:15 10,5 94 1010,5 0.000
16-04-2009 5:30 10,9 91,7 1010,8 0.000
16-04-2009 5:45 10,6 94,4 1010,6 0.000
16-04-2009 6:00 10,6 95 1011 0.000
16-04-2009 6:15 10,5 95,7 1010,9 0.000
16-04-2009 6:30 10,5 95,2 1011,4 0.000
16-04-2009 6:45 10,6 94,6 1011,7 0.000
16-04-2009 7:00 10,7 93,7 1011,6 0.000
16-04-2009 7:15 11,6 88,5 1011,9 0.000
16-04-2009 7:30 12 86,8 1011 0.000
16-04-2009 7:45 12 86,5 1010,7 0.000
16-04-2009 8:00 12,2 85,9 1011,3 0.000
16-04-2009 8:15 12,2 89 1012 0.000
16-04-2009 8:30 12,1 90 1012 0.000
16-04-2009 8:45 12,5 88,5 1012,1 0.000
16-04-2009 9:00 12,8 85,7 1010,7 0.000
16-04-2009 9:15 13 84,9 1010,5 0.000
16-04-2009 9:30 13,1 84,3 1011,1 0.000
16-04-2009 9:45 12,8 89,1 1011,3 0.000
16-04-2009 10:00 12,2 92,5 1011,7 0,3
16-04-2009 10:15 12,4 94,8 1012,7 0,3
16-04-2009 10:30 12,5 93 1011,7 0.000
16-04-2009 10:45 12,7 92,5 1011,9 0.000
16-04-2009 11:00 13,1 90,9 1011,4 0.000
16-04-2009 11:15 13,5 91,7 1010,8 0.000
16-04-2009 11:30 13,8 91,1 1010,4 0.000
16-04-2009 11:45 14,1 88,3 1010,5 0.000
16-04-2009 12:00 14,4 86,3 1010,2 0.000
16-04-2009 12:15 14,8 84 1010,1 0.000
16-04-2009 12:30 15,3 81,7 1010,3 0,3
16-04-2009 12:45 15,8 79,1 1010,1 0.000
16-04-2009 13:00 16,5 73,4 1009,6 0.000
16-04-2009 13:15 16,9 70,5 1010,1 0.000
16-04-2009 13:30 16,6 74,8 1009,9 0.000
16-04-2009 13:45 16,5 76,1 1009,8 0.000
16-04-2009 14:00 16,1 76,6 1009,4 0.000
16-04-2009 14:15 16 81,1 1009,3 0.000
16-04-2009 14:30 15,1 89,5 1009,2 0,3
16-04-2009 14:45 14,8 91,1 1009,3 0.000
16-04-2009 15:00 14,6 91,8 1009,4 0.000
16-04-2009 15:15 14,5 92,2 1009,1 0.000
16-04-2009 15:30 14,6 96,4 1009 0,3
16-04-2009 15:45 14,5 95,3 1009,1 0.000
16-04-2009 16:00 14,8 93,3 1008,8 0.000
16-04-2009 16:15 15,1 90,4 1008,9 0.000
16-04-2009 16:30 15 91,9 1008,9 0.000
16-04-2009 16:45 15,1 92,9 1009 0.000
16-04-2009 17:00 15,1 91,7 1008,6 0.000
16-04-2009 17:15 15 90,8 1008,5 0.000
16-04-2009 17:30 13,8 92,2 1008,7 0.000
16-04-2009 17:45 13 96,8 1008,9 0.000
16-04-2009 18:00 12,8 99,6 1009,1 0.000
16-04-2009 18:15 12,6 99,9 1008,8 1,8
16-04-2009 18:30 12,3 99,9 1008,7 0,9
16-04-2009 18:45 12,4 99,9 1008,6 0,899
16-04-2009 19:00 12,3 99,9 1008,7 0,899
16-04-2009 19:15 12,3 99,9 1009 0,6
16-04-2009 19:30 12,2 99,9 1008,9 0.000
16-04-2009 19:45 12,1 99,9 1009 0,3
16-04-2009 20:00 12,1 99,9 1009,1 0,899
16-04-2009 20:15 12,1 99,9 1008,8 0.000
16-04-2009 20:30 12 99,9 1009 0.000
16-04-2009 20:45 12 99,9 1009,3 0,6
16-04-2009 21:00 12 99,9 1009 0.000
16-04-2009 21:15 12 99,9 1009,4 0.000
16-04-2009 21:30 12 99,9 1009,2 0.000
16-04-2009 21:45 12 99,9 1009,2 0,3
16-04-2009 22:00 12 99,9 1009,1 0.000
16-04-2009 22:15 11,9 99,9 1009,3 0.000
16-04-2009 22:30 11,9 99,9 1008,9 0.000
16-04-2009 22:45 11,9 99,9 1009,2 0.000
16-04-2009 23:00 11,9 99,9 1009,1 0.000
16-04-2009 23:15 11,8 99,9 1009,3 0,3
16-04-2009 23:30 11,7 99,9 1009 0.000
16-04-2009 23:45 11,6 99,9 1009,1 0.000
17-04-2009 0:00 11,2 99,9 1009,2 0.000
17-04-2009 0:15 11,3 99,9 1009,1 0.000
17-04-2009 0:30 11,1 99,9 1009,1 0.000
17-04-2009 0:45 11 99,9 1008,8 0.000
17-04-2009 1:00 11,3 99,9 1009 0.000
17-04-2009 1:15 11,6 99,9 1009 0.000
17-04-2009 1:30 11,7 99,9 1008,9 0.000
17-04-2009 1:45 11,3 99,9 1008,7 0.000
17-04-2009 2:00 11,3 99,9 1008,6 0.000
17-04-2009 2:15 11,5 99,9 1008,8 0.000
17-04-2009 2:30 11,1 99,9 1008,7 0.000
17-04-2009 2:45 11,1 99,9 1008,6 0.000
17-04-2009 3:00 11 99,9 1008,7 0.000
17-04-2009 3:15 10,5 99,9 1008,6 0.000
17-04-2009 3:30 10,5 99,9 1008,6 0.000
17-04-2009 3:45 10,3 99,9 1008,5 0.000
17-04-2009 4:00 10,3 99,9 1008,6 0.000
17-04-2009 4:15 10,4 99,9 1008,5 0.000
17-04-2009 4:30 10,5 99,9 1008,6 0.000
17-04-2009 4:45 10,7 99,9 1008,7 0.000
17-04-2009 5:00 10,5 99,9 1008,7 0.000
17-04-2009 5:15 10,4 99,9 1008,5 0.000
17-04-2009 5:30 10,1 99,9 1008,5 0.000
17-04-2009 5:45 10,1 99,9 1008,4 0.000
17-04-2009 6:00 10,1 99,9 1008,7 0.000
17-04-2009 6:15 9,6 99,9 1008,6 0.000
17-04-2009 6:30 9,1 99,9 1008,7 0.000
17-04-2009 6:45 9,3 99,9 1008,9 0.000
17-04-2009 7:00 9,3 99,9 1008,9 0.000
17-04-2009 7:15 9,8 99,9 1009 0.000
17-04-2009 7:30 10,2 99,9 1009,1 0.000
17-04-2009 7:45 11,1 99,9 1009 0.000
17-04-2009 8:00 12,3 99,9 1009 0.000
17-04-2009 8:15 13 95,2 1008,9 0.000
17-04-2009 8:30 13,4 88 1009,1 0.000
17-04-2009 8:45 13,7 85,4 1009,3 0.000
17-04-2009 9:00 14,4 85,4 1009 0.000
17-04-2009 9:15 14,5 84,2 1009,2 0.000
17-04-2009 9:30 15,1 81,8 1009,3 0.000
17-04-2009 9:45 15,1 81,5 1009,1 0.000
17-04-2009 10:00 16,1 73,4 1009,5 0.000
17-04-2009 10:15 16,8 72,6 1009,1 0.000
17-04-2009 10:30 16 72,5 1009,1 0.000
17-04-2009 10:45 15,6 69,9 1009,7 0.000
17-04-2009 11:00 14,9 76,7 1009,3 0.000
17-04-2009 11:15 15 75,9 1009,7 0.000
17-04-2009 11:30 15 75,6 1009,8 0.000
17-04-2009 11:45 16,4 71,3 1009,5 0.000
17-04-2009 12:00 15,6 71,7 1010 0.000
17-04-2009 12:15 15,8 69 1009,5 0.000
17-04-2009 12:30 16,4 68,7 1009,4 0.000
17-04-2009 12:45 17,3 61 1009,8 0.000
17-04-2009 13:00 18,3 58,9 1009,4 0.000
17-04-2009 13:15 17,6 62,9 1009,6 0.000
17-04-2009 13:30 17,3 59,4 1009,5 0.000
17-04-2009 13:45 17,6 60 1009,3 0.000
17-04-2009 14:00 17,7 56,9 1009,6 0.000
17-04-2009 14:15 18 54,3 1009,5 0.000
17-04-2009 14:30 18,3 56,5 1009,3 0.000
17-04-2009 14:45 18,3 53,6 1009,4 0.000
17-04-2009 15:00 17,9 52,8 1009,1 0.000
17-04-2009 15:15 17,9 54,1 1009,1 0.000
17-04-2009 15:30 18,1 53,2 1009,4 0.000
17-04-2009 15:45 18,1 51,4 1009 0.000
17-04-2009 16:00 18,1 51,6 1009 0.000
17-04-2009 16:15 18,4 51,5 1008,9 0.000
17-04-2009 16:30 18,6 49,9 1009 0.000
17-04-2009 16:45 18,6 47,5 1008,9 0.000
17-04-2009 17:00 18,8 52,4 1008,8 0.000
17-04-2009 17:15 18,2 49,1 1009 0.000
17-04-2009 17:30 18,1 48 1009 0.000
17-04-2009 17:45 18,1 48,6 1008,8 0.000
17-04-2009 18:00 18 52,2 1009 0.000
17-04-2009 18:15 17,5 51,4 1009,1 0.000
17-04-2009 18:30 17,3 53,4 1008,9 0.000
17-04-2009 18:45 16,9 56,5 1008,8 0.000
17-04-2009 19:00 16,1 61 1009 0.000
17-04-2009 19:15 15,6 63,8 1009,4 0.000
17-04-2009 19:30 15,2 67,6 1009,4 0.000
17-04-2009 19:45 15 71,6 1009,1 0.000
17-04-2009 20:00 14,5 74,8 1009,4 0.000
17-04-2009 20:15 14 79,1 1009,4 0.000
17-04-2009 20:30 13,8 81,5 1009,3 0.000
17-04-2009 20:45 13,6 82 1009,5 0.000
17-04-2009 21:00 13,3 84,6 1009,6 0.000
17-04-2009 21:15 13 88,1 1010,3 0.000
17-04-2009 21:30 12,5 90,1 1009,9 0.000
17-04-2009 21:45 12,1 93,4 1010,2 0.000
17-04-2009 22:00 11,9 94,4 1010,1 0.000
17-04-2009 22:15 11,6 95,2 1010,3 0.000
17-04-2009 22:30 12,1 93,4 1010 0.000
17-04-2009 22:45 11,9 95,1 1010,2 0.000
17-04-2009 23:00 11,8 96,1 1010,3 0.000
17-04-2009 23:15 11,7 96,1 1010,4 0.000
17-04-2009 23:30 12,3 92,4 1010,3 0.000
17-04-2009 23:45 12,8 89 1010,5 0.000
18-04-2009 0:00 12,6 92,6 1010,6 0.000
18-04-2009 0:15 12,4 97,1 1010,2 0.000
18-04-2009 0:30 12 98,2 1010,9 0.000
18-04-2009 0:45 11,4 99,3 1010,7 0.000
18-04-2009 1:00 11 99,5 1010,5 0,3
18-04-2009 1:15 11,8 99,9 1010,7 0.000
18-04-2009 1:30 12 99,4 1010,6 0.000
18-04-2009 1:45 11,9 99,7 1010,6 0.000
18-04-2009 2:00 11,6 98,3 1010,4 0.000
18-04-2009 2:15 11,2 99,3 1010,4 0.000
18-04-2009 2:30 10,5 99,9 1010,1 0.000
18-04-2009 2:45 10,3 99,9 1009,7 0.000
18-04-2009 3:00 9,6 99,9 1010,4 0.000
18-04-2009 3:15 10,5 99,9 1009,7 0.000
18-04-2009 3:30 10,6 99,9 1009,8 0.000
18-04-2009 3:45 10,6 99,9 1009,8 0.000
18-04-2009 4:00 10,3 99,9 1009,5 0.000
18-04-2009 4:15 10,3 99,9 1009,8 0.000
18-04-2009 4:30 10,3 99,9 1009,6 0.000
18-04-2009 4:45 10,4 99,9 1009,8 0.000
18-04-2009 5:00 10,1 99,9 1009,6 0.000
18-04-2009 5:15 10,6 99,9 1009,7 0.000
18-04-2009 5:30 10,3 99,9 1009,6 0.000
18-04-2009 5:45 10,1 99,9 1009,5 0.000
18-04-2009 6:00 9,6 99,9 1009,6 0.000
18-04-2009 6:15 9,4 99,9 1009,8 0.000
18-04-2009 6:30 9,6 99,9 1009,8 0.000
18-04-2009 6:45 9,8 99,9 1010 0.000
18-04-2009 7:00 10 99 1010,1 0.000
18-04-2009 7:15 10,3 96,9 1010,1 0.000
18-04-2009 7:30 10,6 96,8 1010,9 0.000
18-04-2009 7:45 10,9 96,1 1010,5 0.000
18-04-2009 8:00 11,5 93 1010,6 0.000
18-04-2009 8:15 11,5 89,2 1010,2 0.000
18-04-2009 8:30 11,9 84,1 1010,6 0.000
18-04-2009 8:45 12,4 77,7 1010,4 0.000
18-04-2009 9:00 13 74,7 1010,4 0.000
18-04-2009 9:15 13,3 74 1010,6 0.000
18-04-2009 9:30 13,6 73,4 1011 0.000
18-04-2009 9:45 14,1 69,8 1010,4 0.000
18-04-2009 10:00 14,8 69,9 1010,8 0.000
18-04-2009 10:15 15,7 71,7 1010,7 0.000
18-04-2009 10:30 16,1 70,4 1010,8 0.000
18-04-2009 10:45 16,3 69,4 1010,7 0.000
18-04-2009 11:00 16,3 71,2 1010,7 0.000
18-04-2009 11:15 16,3 73,7 1010,8 0.000
18-04-2009 11:30 16,2 71,2 1010,7 0.000
18-04-2009 11:45 15,6 76,4 1010,9 0.000
18-04-2009 12:00 15,1 81,1 1010,7 0.000
18-04-2009 12:15 14,4 85,1 1011 0.000
18-04-2009 12:30 13,7 88,1 1011,2 0.000
18-04-2009 12:45 13,4 89,8 1011,3 0.000
18-04-2009 13:00 12,8 88,8 1011,3 0.000
18-04-2009 13:15 12,7 92,2 1011,4 0.000
18-04-2009 13:30 12,4 92,4 1011,9 0,9
18-04-2009 13:45 12,1 95 1011,3 0,3
18-04-2009 14:00 12,2 92,8 1011,1 0,6
18-04-2009 14:15 12,6 96,4 1010,6 0.000
18-04-2009 14:30 13 90,8 1010,7 0.000
18-04-2009 14:45 13,3 88,2 1010,9 0.000
18-04-2009 15:00 14 85,2 1011 0.000
18-04-2009 15:15 14,4 79,6 1011 0.000
18-04-2009 15:30 14,5 85,3 1010,8 0.000
18-04-2009 15:45 14,2 78,4 1010,3 0.000
18-04-2009 16:00 14,2 76 1010,2 0.000
18-04-2009 16:15 14,5 78 1010,5 0.000
18-04-2009 16:30 14,7 70,5 1010,5 0.000
18-04-2009 16:45 14,8 71,8 1010,6 0.000
18-04-2009 17:00 14,9 74,7 1010,6 0.000
18-04-2009 17:15 14,8 78,4 1010,5 0.000
18-04-2009 17:30 14,8 76,9 1009,9 0.000
18-04-2009 17:45 14,7 79,4 1009,9 0.000
18-04-2009 18:00 14,6 78,6 1010 0.000
18-04-2009 18:15 14,5 78,2 1010,2 0.000
18-04-2009 18:30 14,5 77 1010 0.000
18-04-2009 18:45 14,3 79,2 1010,1 0.000
18-04-2009 19:00 14,1 80,8 1010,3 0.000
18-04-2009 19:15 13,9 90,8 1010,4 0,3
18-04-2009 19:30 13,6 93,1 1010,5 0.000
18-04-2009 19:45 13,1 97,6 1010,2 0.000
18-04-2009 20:00 12,9 98,6 1010,5 0.000
18-04-2009 20:15 12,8 99,6 1010,7 0.000
18-04-2009 20:30 12,8 99,9 1011,2 0,3
18-04-2009 20:45 12,6 99,9 1011,3 0.000
18-04-2009 21:00 12,6 99,9 1011,4 0.000
18-04-2009 21:15 12,4 98,8 1011,5 0.000
18-04-2009 21:30 12,3 98,4 1011,4 0.000
18-04-2009 21:45 12,3 99,3 1011,4 0.000
18-04-2009 22:00 12,3 98,7 1011,5 0.000
18-04-2009 22:15 12,3 97,8 1011,5 0.000
18-04-2009 22:30 12,1 97,1 1011,9 0.000
18-04-2009 22:45 12,1 97,7 1011,5 0.000
18-04-2009 23:00 11,9 98,7 1011,3 0.000
18-04-2009 23:15 11,6 98,6 1011,6 0.000
18-04-2009 23:30 11,2 99,7 1011 0.000
19-04-2009 0:00 10,9 99,9 1011,5 0.000
19-04-2009 0:15 11 99,8 1011,3 0.000
19-04-2009 0:30 11,1 99,1 1011,3 0.000
19-04-2009 0:45 11 99,4 1011,5 0.000
19-04-2009 1:00 11 99,9 1011 0.000
19-04-2009 1:15 11 99,9 1010,9 0.000
19-04-2009 1:30 10,8 99,9 1011,1 0.000
19-04-2009 1:45 11 99,4 1011,1 0.000
19-04-2009 2:00 11,5 93,3 1011,3 0.000
19-04-2009 2:15 11,5 94,9 1010,9 0.000
19-04-2009 2:30 11,6 95,4 1010,8 0.000
19-04-2009 2:45 11,5 97,4 1011,3 0,3
19-04-2009 3:00 11,5 98,4 1010,9 0.000
19-04-2009 3:15 11,3 99,9 1011,1 0,3
19-04-2009 3:30 11,3 98,7 1010,9 0,3
19-04-2009 3:45 11,3 99,9 1011,5 0,3
19-04-2009 4:00 11,3 99,9 1011,5 0.000
19-04-2009 4:15 11,3 99,9 1011 0,3
19-04-2009 4:30 11,1 99,9 1011,3 0.000
19-04-2009 4:45 11,1 99,9 1011,5 0.000
19-04-2009 5:00 11 99,9 1011,3 0,3
19-04-2009 5:15 11 99,9 1011,3 0.000
19-04-2009 5:30 10,8 99,9 1010,8 0.000
19-04-2009 5:45 10,9 99,9 1010,8 0,3
19-04-2009 6:00 10,8 99,9 1011,2 0,3
19-04-2009 6:15 10,8 99,9 1010,8 0,899
19-04-2009 6:30 10,7 99,9 1010,5 0,6
19-04-2009 6:45 10,7 99,9 1011,3 0,3
19-04-2009 7:00 10,7 99,9 1011,5 0,3
19-04-2009 7:15 10,8 99,9 1011,3 0.000
19-04-2009 7:30 10,9 99,9 1011,4 0.000
19-04-2009 7:45 10,8 99,9 1011,5 0.000
19-04-2009 8:00 11 99,9 1011,4 0.000
19-04-2009 8:15 11 99,9 1011 0.000
19-04-2009 8:30 11,1 99,9 1011,7 0.000
19-04-2009 8:45 11,2 99,9 1011,4 0.000
19-04-2009 9:00 11,3 99,9 1011,5 0.000
19-04-2009 9:15 11,6 99,9 1011,7 0.000
19-04-2009 9:30 11,6 99,9 1011,7 0.000
19-04-2009 9:45 12,1 99,9 1011,2 0,3
19-04-2009 10:00 12,8 97,9 1011,3 0.000
19-04-2009 10:15 13 95,9 1011,2 0.000
19-04-2009 10:30 13,1 96,2 1011,5 0.000
19-04-2009 10:45 13,9 93,3 1011,4 0.000
19-04-2009 11:00 14,4 90,9 1011,3 0.000
19-04-2009 11:15 14,2 94,5 1011,6 0.000
19-04-2009 11:30 14,1 89,8 1011,3 0.000
19-04-2009 11:45 15 87,3 1011,7 0.000
19-04-2009 12:00 15,3 84,5 1011,7 0.000
19-04-2009 12:15 15,3 89 1011,5 0.000
19-04-2009 12:30 15,1 86,3 1011,2 0.000
19-04-2009 12:45 15,8 83,9 1011,4 0.000
19-04-2009 13:00 16,1 79,6 1011,4 0.000
19-04-2009 13:15 16,1 81,1 1010,9 0.000
19-04-2009 13:30 16,3 79 1011,3 0.000
19-04-2009 13:45 16,4 80,7 1011 0.000
19-04-2009 14:00 16,1 81,8 1011,3 0.000
19-04-2009 14:15 16,5 78,9 1011,2 0.000
19-04-2009 14:30 16,7 76,9 1010,7 0.000
19-04-2009 14:45 16,9 75,7 1010,6 0.000
19-04-2009 15:00 17,3 68,5 1010,2 0.000
19-04-2009 15:15 17,6 62 1010,2 0.000
19-04-2009 15:30 17,6 62,4 1009,7 0.000
19-04-2009 15:45 17,6 64,6 1010 0.000
19-04-2009 16:00 17,6 63,8 1010 0.000
19-04-2009 16:15 17,7 63,2 1009,9 0.000
19-04-2009 16:30 17,3 64,9 1010,3 0.000
19-04-2009 16:45 16,3 68,3 1010,3 0.000
19-04-2009 17:00 15,4 75,8 1010,4 0,3
19-04-2009 17:15 15 79,1 1010,9 0.000
19-04-2009 17:30 14,6 80 1010,4 0,3
19-04-2009 17:45 13,7 92,4 1011,2 0.000
19-04-2009 18:00 13 99,2 1011,1 0,3
19-04-2009 18:15 12,6 99,8 1011,3 0,6
19-04-2009 18:30 12,3 99,9 1011,9 0,3
19-04-2009 18:45 12,2 99,9 1011,9 0,6
19-04-2009 19:00 12 99,9 1011,9 0,9
19-04-2009 19:15 12,1 99,9 1012,2 0,6
19-04-2009 19:30 11,9 99,9 1012,2 0,3
19-04-2009 19:45 11,8 99,9 1012,3 0,3
19-04-2009 20:00 11,8 99,9 1012,4 0.000
19-04-2009 20:15 11,7 99,9 1012,3 0,3
19-04-2009 20:30 11,6 99,9 1012,3 0.000
19-04-2009 20:45 11,5 99,9 1012,7 0,3
19-04-2009 21:00 11,5 99,9 1012,8 0,6
19-04-2009 21:15 11,4 99,9 1012,6 0.000
19-04-2009 21:30 11,5 99,9 1012,7 0,3
19-04-2009 21:45 11,5 99,9 1012,7 0.000
19-04-2009 22:00 11,6 99,9 1012,7 0.000
19-04-2009 22:15 11,6 99,9 1012,7 0,3
19-04-2009 22:30 11,5 99,9 1012,8 0,6
19-04-2009 22:45 11,5 99,9 1013 0,3
19-04-2009 23:00 11,5 99,9 1013,2 0.000
19-04-2009 23:15 11,5 99,9 1013 0.000
19-04-2009 23:30 11,5 99,9 1012,8 0.000
19-04-2009 23:45 11,4 99,9 1012,8 0.000
20-04-2009 0:00 11,4 99,9 1013,2 0.000
20-04-2009 0:00 11,4 99,9 1013,1 0.000
20-04-2009 0:15 11,3 99,9 1013,2 0.000
20-04-2009 0:30 11,1 99,9 1013,4 0,3
20-04-2009 0:45 10,8 99,9 1013,6 0,3
20-04-2009 1:00 10,8 99,9 1013,4 0,3
20-04-2009 1:15 10,8 99,9 1013,4 0.000
20-04-2009 1:30 10,9 99,9 1013,5 0.000
20-04-2009 1:45 10,9 99,9 1013,7 0.000
20-04-2009 2:00 10,9 99,9 1013,8 0.000
20-04-2009 2:15 11 99,9 1013,8 0.000
20-04-2009 2:30 11,1 99,9 1013,4 0.000
20-04-2009 2:45 11,2 99,9 1013,1 0.000
20-04-2009 3:00 11,3 99,9 1013 0.000
20-04-2009 3:15 11,3 99,9 1013,1 0.000
20-04-2009 3:30 11,3 99,9 1013,2 0.000
20-04-2009 3:45 11,3 99,9 1013 0.000
20-04-2009 4:00 11,2 99,9 1013,2 0.000
20-04-2009 4:15 11,2 99,9 1013,3 0.000
20-04-2009 4:30 11,2 99,9 1012,9 0.000
20-04-2009 4:45 11,1 99,9 1013 0.000
20-04-2009 5:00 11,1 99,9 1013,5 0.000
20-04-2009 5:15 11,1 99,9 1013,4 0.000
20-04-2009 5:30 11,1 99,9 1013,6 0.000
20-04-2009 5:45 11,2 99,9 1012,9 0.000
20-04-2009 6:00 11,3 99,9 1013,2 0.000
20-04-2009 6:15 11,3 99,9 1013,3 0.000
20-04-2009 6:30 11,2 99,9 1013,6 0.000
20-04-2009 6:45 11,2 99,9 1013,7 0.000
20-04-2009 7:00 11,3 99,9 1013,8 0.000
20-04-2009 7:15 11,6 99,9 1013,9 0.000
20-04-2009 7:30 12 99 1013,7 0.000
20-04-2009 7:45 12,3 96,8 1013,8 0.000
20-04-2009 8:00 12,6 96,1 1014 0.000
20-04-2009 8:15 12,7 94,7 1013,9 0.000
20-04-2009 8:30 12,9 94,1 1014,3 0.000
20-04-2009 8:45 13,3 92,1 1014,2 0.000
20-04-2009 9:00 13,6 90,7 1014,9 0.000
20-04-2009 9:15 13,5 91 1014,7 0.000
20-04-2009 9:30 13,7 89,4 1014,1 0.000
20-04-2009 9:45 13,9 86,5 1014,1 0.000
20-04-2009 10:00 14,4 83,5 1014,1 0.000
20-04-2009 10:15 14,4 83 1013,9 0.000
20-04-2009 10:30 15 77,6 1014,1 0.000
20-04-2009 10:45 15,4 76,8 1014,2 0.000
20-04-2009 11:00 16,3 72,8 1014,3 0.000
20-04-2009 11:15 16,3 72,7 1014,2 0.000
20-04-2009 11:30 16,5 71,5 1014,5 0.000
20-04-2009 11:30 16,5 71,5 1014,5 0.000
20-04-2009 11:45 16,9 70,2 1013,9 0.000
20-04-2009 12:00 16,9 68,4 1014 0.000
20-04-2009 12:15 18 66,3 1014,1 0.000
20-04-2009 12:30 18,1 61,1 1013,5 0.000
20-04-2009 12:45 19,1 55 1013,6 0.000
20-04-2009 13:00 19,7 57,3 1013,3 0.000
20-04-2009 13:15 20,2 58,7 1013,2 0.000
20-04-2009 13:30 19,5 59,5 1012,9 0.000
20-04-2009 13:45 20 56,6 1013 0.000
20-04-2009 14:00 19,8 60,7 1012,6 0.000
20-04-2009 14:15 19,7 59,7 1012,6 0.000
20-04-2009 14:30 19,3 56,9 1012,3 0.000
20-04-2009 14:45 19,8 55,8 1012,3 0.000
20-04-2009 15:00 20 56 1011,7 0.000
20-04-2009 15:15 20,3 55,1 1011,8 0.000
20-04-2009 15:30 20,1 56,7 1011,4 0.000
20-04-2009 15:45 21,3 53,3 1010,9 0.000
20-04-2009 16:00 20,5 53 1010,5 0.000
20-04-2009 16:15 20,7 53,2 1010,5 0.000
20-04-2009 16:30 20,5 50,6 1010,3 0.000
20-04-2009 16:45 21,3 49,8 1010,2 0.000
20-04-2009 17:00 20,1 51,5 1010,1 0.000
20-04-2009 17:15 20,4 51,4 1010,2 0.000
20-04-2009 17:30 20,4 52,3 1009,7 0.000
20-04-2009 17:45 20,4 55 1010 0.000
20-04-2009 18:00 19,8 54,9 1009,9 0.000
20-04-2009 18:15 19,4 58,2 1010,2 0.000
20-04-2009 18:30 19,1 59 1010,1 0.000
20-04-2009 18:45 18,7 60,9 1010,5 0.000
20-04-2009 19:00 18,4 62,8 1010,4 0.000
20-04-2009 19:15 18,3 62,6 1010,6 0.000
20-04-2009 19:30 18 64 1011 0.000
20-04-2009 19:45 17,7 64,7 1011,1 0.000
20-04-2009 20:00 17,5 66,3 1010,9 0.000
20-04-2009 20:15 17,4 66,7 1011,4 0.000
20-04-2009 20:30 17,2 68,2 1011,5 0.000
20-04-2009 20:45 17,1 67,9 1011,4 0.000
20-04-2009 21:00 17 68,7 1011,9 0.000
20-04-2009 21:15 16,8 69,2 1011,7 0.000
20-04-2009 21:30 16,7 70,3 1011,5 0.000
20-04-2009 21:45 16,3 73,4 1011,9 0.000
20-04-2009 22:00 15,8 75,8 1012 0.000
20-04-2009 22:15 15,7 72,9 1012 0.000
20-04-2009 22:30 15,8 72,4 1011,9 0.000
20-04-2009 22:45 15,9 69,8 1011,6 0.000
20-04-2009 23:00 15,9 69,3 1012,1 0.000
20-04-2009 23:15 16 69,2 1011,9 0.000
20-04-2009 23:30 15,8 69,3 1011,7 0.000
20-04-2009 23:45 15,7 69,5 1012,1 0.000
21-04-2009 0:00 15,7 69,6 1012,2 0.000
21-04-2009 0:15 15,7 68,3 1011,3 0.000
21-04-2009 0:30 15,7 67,1 1011,6 0.000
21-04-2009 0:45 15,6 68,5 1011,5 0.000
21-04-2009 1:00 15,6 68,4 1011,6 0.000
21-04-2009 1:15 15,6 67,2 1011,1 0.000
21-04-2009 1:30 15,5 67,8 1011,1 0.000
21-04-2009 1:45 15,5 66,6 1010,7 0.000
21-04-2009 2:00 15,5 67,3 1010,9 0.000
21-04-2009 2:15 15,5 67,8 1010,6 0.000
21-04-2009 2:30 15,5 67,5 1010,4 0.000
21-04-2009 2:45 15,5 67,3 1010 0.000
21-04-2009 3:00 15,3 68,7 1009,8 0.000
21-04-2009 3:15 15,3 68,5 1009,8 0.000
21-04-2009 3:30 15,3 68,2 1009,5 0.000
21-04-2009 3:45 15,3 68,1 1009,8 0.000
21-04-2009 4:00 15,3 68,1 1009,8 0.000
21-04-2009 4:15 15,1 69,2 1009,4 0.000
21-04-2009 4:30 15,1 70,1 1009,6 0.000
21-04-2009 4:45 15 71 1009,3 0.000
21-04-2009 5:00 15 71,3 1009 0.000
21-04-2009 5:15 14,8 72,7 1009,4 0.000
21-04-2009 5:30 14,5 73,3 1009 0.000
21-04-2009 5:45 14,5 74,2 1009,1 0.000
21-04-2009 6:00 14,5 74 1009,1 0.000
21-04-2009 6:15 14,5 73,9 1008,7 0.000
21-04-2009 6:30 14,8 72,9 1009 0.000
21-04-2009 6:45 14,3 75,3 1008,8 0.000
21-04-2009 7:00 13,8 76,6 1008,9 0.000
21-04-2009 7:15 13,9 80,3 1008,8 0.000
21-04-2009 7:30 14,2 77,2 1009,1 0.000
21-04-2009 7:45 14,8 75,8 1009 0.000
21-04-2009 8:00 15,1 72,8 1009,3 0.000
21-04-2009 8:15 15,4 72,4 1009,1 0.000
21-04-2009 8:30 15,6 72 1009,1 0.000
21-04-2009 8:45 15,6 71,5 1009,2 0.000
21-04-2009 9:00 15,8 71,2 1009,5 0.000
21-04-2009 9:15 16,1 69,1 1009,2 0.000
21-04-2009 9:30 16,4 68,7 1010 0.000
21-04-2009 9:45 16,5 68,1 1010 0.000
21-04-2009 10:00 16,8 67,5 1009,4 0.000
21-04-2009 10:15 17,4 65,1 1009,4 0.000
21-04-2009 10:30 17,4 64,9 1009,1 0.000
21-04-2009 10:45 17,6 64,1 1009,5 0.000
21-04-2009 11:00 18,1 61,1 1009,1 0.000
21-04-2009 11:15 18 60,7 1009,1 0.000
21-04-2009 11:30 18,5 60,1 1009,4 0.000
21-04-2009 11:45 18,8 58,2 1008,9 0.000
21-04-2009 12:00 19,5 57,7 1008,9 0.000
21-04-2009 12:15 19,9 55,4 1008,8 0.000
21-04-2009 12:30 20,5 52,7 1008,9 0.000
21-04-2009 12:45 19,9 54 1008,8 0.000
21-04-2009 13:00 20,5 52,7 1008,7 0.000
21-04-2009 13:15 20,1 54 1008,6 0.000
21-04-2009 13:30 19,6 54,4 1008,8 0.000
21-04-2009 13:45 19,4 56,2 1008,8 0.000
21-04-2009 14:00 19 56,9 1008,6 0.000
21-04-2009 14:15 18,8 56,1 1008,5 0.000
21-04-2009 14:30 19,1 56,2 1008,5 0.000
21-04-2009 14:45 19,1 57,5 1008,5 0.000
21-04-2009 15:00 19 57,4 1008,4 0.000
21-04-2009 15:15 19 58,4 1008,3 0.000
21-04-2009 15:30 19 58 1008,3 0.000
21-04-2009 15:45 19,1 58 1008,4 0.000
21-04-2009 16:00 18,9 58,8 1008,4 0.000
21-04-2009 16:15 18,7 59,9 1008,2 0.000
21-04-2009 16:30 18,6 59,9 1008,1 0.000
21-04-2009 16:45 18,7 60,5 1008 0.000
21-04-2009 17:00 18,6 60,7 1008,1 0.000
21-04-2009 17:15 18,5 61,5 1008 0.000
21-04-2009 17:30 18,5 61,6 1007,9 0.000
21-04-2009 17:45 18,5 61,2 1008,2 0.000
21-04-2009 18:00 18,4 61,8 1008,2 0.000
21-04-2009 18:15 18,3 63,2 1008,5 0.000
21-04-2009 18:30 18 63,5 1008,3 0.000
21-04-2009 18:45 18,2 62 1008,1 0.000
21-04-2009 19:00 18 63,5 1008,4 0.000
21-04-2009 19:15 17,8 62,7 1008,4 0.000
21-04-2009 19:30 17,6 62,9 1008,5 0.000
21-04-2009 19:45 17,4 63,7 1008,5 0.000
21-04-2009 20:00 17,3 64,9 1008,4 0.000
21-04-2009 20:15 17,2 65,3 1008,4 0.000
21-04-2009 20:30 17 66,7 1008,6 0.000
21-04-2009 20:45 17 66,4 1008,8 0.000
21-04-2009 21:00 17,1 65,6 1008,6 0.000
21-04-2009 21:15 17 65,5 1008,4 0.000
21-04-2009 21:30 17 66,7 1008,6 0.000
21-04-2009 21:45 17 65,8 1008,7 0.000
21-04-2009 22:00 17,1 64,6 1008,7 0.000
21-04-2009 22:15 17,3 64 1008,8 0.000
21-04-2009 22:30 17,1 65,2 1008,8 0.000
21-04-2009 22:45 17 65,9 1008,7 0.000
21-04-2009 23:00 16,9 66,3 1008,5 0.000
21-04-2009 23:15 16,8 65,3 1008,8 0.000
21-04-2009 23:30 17 64,7 1008,8 0.000
21-04-2009 23:45 16,9 64,6 1008,5 0.000
22-04-2009 0:00 16,8 64,5 1008,7 0.000
22-04-2009 0:15 17 64,4 1008,7 0.000
22-04-2009 0:30 16,8 64,5 1008,9 0.000
22-04-2009 0:45 16,6 65 1008,8 0.000
22-04-2009 1:00 16,8 62,8 1008,9 0.000
22-04-2009 1:15 16,8 60,2 1008,7 0.000
22-04-2009 1:30 16,6 59,6 1008,7 0.000
22-04-2009 1:45 16,8 57,1 1008,7 0.000
22-04-2009 2:00 16,9 55,6 1008,5 0.000
22-04-2009 2:15 16,9 55,6 1008,8 0.000
22-04-2009 2:30 17,1 54,5 1008,5 0.000
22-04-2009 2:45 17 54,8 1008,6 0.000
22-04-2009 3:00 16,8 55,2 1008,4 0.000
22-04-2009 3:15 16,1 57,6 1008,7 0.000
22-04-2009 3:30 16 57,5 1008,5 0.000
22-04-2009 3:45 16,3 58,1 1008,6 0.000
22-04-2009 4:00 16,1 59,9 1008,8 0.000
22-04-2009 4:15 16,1 60,3 1008,7 0.000
22-04-2009 4:30 16,1 61,6 1008,7 0.000
22-04-2009 4:45 16,3 61,2 1008,4 0.000
22-04-2009 5:00 16,1 61,6 1008,8 0.000
22-04-2009 5:15 15,6 64,5 1008,6 0.000
22-04-2009 5:30 15,3 66,7 1008,4 0.000
22-04-2009 5:45 15 66,5 1008,4 0.000
22-04-2009 6:00 15,1 67,1 1008,3 0.000
22-04-2009 6:15 15,4 65,9 1008,4 0.000
22-04-2009 6:30 15,3 67,5 1008,5 0.000
22-04-2009 6:45 15,6 64,8 1008,8 0.000
22-04-2009 7:00 15,4 66,7 1008,7 0.000
22-04-2009 7:15 15,4 62,3 1008,7 0.000
22-04-2009 7:30 15,6 64,7 1008,9 0.000
22-04-2009 7:45 16 62,5 1008,9 0.000
22-04-2009 8:00 16,5 58,9 1008,7 0.000
22-04-2009 8:15 16,7 56,5 1008,7 0.000
22-04-2009 8:30 16,6 54,7 1008,8 0.000
22-04-2009 8:45 17 51,9 1008,6 0.000
22-04-2009 9:00 17,1 51,3 1008,7 0.000
22-04-2009 9:15 17,2 49,6 1009 0.000
22-04-2009 9:30 17,3 48,7 1008,9 0.000
22-04-2009 9:45 17,5 47,2 1009 0.000
22-04-2009 10:00 17,8 44,7 1009 0.000
22-04-2009 10:15 18,1 43,5 1009,2 0.000
22-04-2009 10:30 18,1 42,4 1009,4 0.000
22-04-2009 10:45 18,6 39,7 1009,2 0.000
22-04-2009 11:00 18,6 39,6 1009,6 0.000
22-04-2009 11:15 18,5 40 1009,3 0.000
22-04-2009 11:30 18,6 38,2 1009,3 0.000
22-04-2009 11:45 18,7 37,9 1009,5 0.000
22-04-2009 12:00 18,6 39,9 1009,6 0.000
22-04-2009 12:15 18,8 41,7 1009,6 0.000
22-04-2009 12:30 19 40,2 1009,6 0.000
22-04-2009 12:45 19,1 41,8 1009,4 0.000
22-04-2009 13:00 19,3 41 1009,4 0.000
22-04-2009 13:15 19,6 39,8 1009,4 0.000
22-04-2009 13:30 19,6 38,6 1009,1 0.000
22-04-2009 13:45 19,7 39,3 1009,2 0.000
22-04-2009 14:00 19,8 39,2 1009,2 0.000
22-04-2009 14:15 19,7 40,7 1009 0.000
22-04-2009 14:30 19,8 41,3 1009 0.000
22-04-2009 14:45 19,7 41,7 1008,9 0.000
22-04-2009 15:00 19,9 43,7 1008,9 0.000
22-04-2009 15:15 20,3 44,3 1008,7 0.000
22-04-2009 15:30 20,6 40,9 1008,6 0.000
22-04-2009 15:45 21,2 40,1 1008,5 0.000
22-04-2009 16:00 21,3 39,3 1008,7 0.000
22-04-2009 16:15 21,6 38,1 1008,5 0.000
22-04-2009 16:30 21,9 35,6 1008,5 0.000
22-04-2009 16:45 21,9 36,2 1008,5 0.000
22-04-2009 17:00 21,8 35,7 1008,4 0.000
22-04-2009 17:15 22,2 36,5 1008,4 0.000
22-04-2009 17:30 22 34,4 1008,4 0.000
22-04-2009 17:45 22,1 35 1008,5 0.000
22-04-2009 18:00 22,2 35,6 1008,5 0.000
22-04-2009 18:15 22 35,5 1008,6 0.000
22-04-2009 18:30 21,9 35,7 1008,7 0.000
22-04-2009 18:45 21,8 35,9 1008,6 0.000
22-04-2009 19:00 21,6 34,8 1008,6 0.000
22-04-2009 19:15 21,4 37,4 1008,8 0.000
22-04-2009 19:30 21 37,8 1008,7 0.000
22-04-2009 19:45 20,5 39,4 1008,7 0.000
22-04-2009 20:00 20,1 40 1009,1 0.000
22-04-2009 20:15 19,2 42,6 1008,9 0.000
22-04-2009 20:30 18,4 48,2 1009,2 0.000
22-04-2009 20:45 16,3 58,4 1009,1 0.000
22-04-2009 21:00 14,8 65,5 1009,4 0.000
22-04-2009 21:15 13,9 68,5 1009,4 0.000
22-04-2009 21:30 13 74,1 1009,6 0.000
22-04-2009 21:45 12,2 77,1 1009,7 0.000
22-04-2009 22:00 11,5 80,6 1010 0.000
22-04-2009 22:15 11,1 83,2 1010,3 0.000
22-04-2009 22:30 10,6 86,5 1010 0.000
22-04-2009 22:45 10 90,1 1010,2 0.000
22-04-2009 23:00 9,9 88,4 1010,1 0.000
22-04-2009 23:15 9,5 90,1 1010,2 0.000
22-04-2009 23:30 9,1 93,4 1010,3 0.000
22-04-2009 23:45 8,8 92,8 1010,6 0.000
23-04-2009 0:00 8,3 93,9 1010,2 0.000
23-04-2009 0:15 8,7 95,1 1010,6 0.000
23-04-2009 0:30 9,1 92,7 1010,4 0.000
23-04-2009 0:45 8,9 92,8 1010,2 0.000
23-04-2009 1:00 8,5 93,8 1010,3 0.000
23-04-2009 1:15 8,1 95,1 1010,3 0.000
23-04-2009 1:30 8 96,3 1010,4 0.000
23-04-2009 1:45 8,2 96,5 1010,3 0.000
23-04-2009 2:00 8 97,2 1010,3 0.000
23-04-2009 2:15 7,9 96,4 1010,1 0.000
23-04-2009 2:30 7,4 96,5 1010 0.000
23-04-2009 2:45 7 98,3 1009,6 0.000
23-04-2009 3:00 6,6 98,6 1010,2 0.000
23-04-2009 3:15 6,5 99,9 1009,6 0.000
23-04-2009 3:30 7,8 97,3 1009,5 0.000
23-04-2009 3:45 7,1 97 1009,7 0.000
23-04-2009 4:00 6,7 97,8 1009,6 0.000
23-04-2009 4:15 7,9 95,5 1009,7 0.000
23-04-2009 4:30 7 95,4 1009,2 0.000
23-04-2009 4:45 6,8 99,6 1009,3 0.000
23-04-2009 5:00 6,1 99,4 1009,7 0.000
23-04-2009 5:15 6 99,9 1009,3 0.000
23-04-2009 5:30 6,6 99,9 1009,1 0.000
23-04-2009 5:45 7 99,9 1009,2 0.000
23-04-2009 6:00 7,8 94,6 1009,1 0.000
23-04-2009 6:15 7,5 95,2 1009,2 0.000
23-04-2009 6:30 6,7 96,8 1009,1 0.000
23-04-2009 6:45 6,3 98,4 1009,4 0.000
23-04-2009 7:00 7 99,3 1009,1 0.000
23-04-2009 7:15 7,7 94,5 1009,1 0.000
23-04-2009 7:30 8,5 90,5 1009,6 0.000
23-04-2009 7:45 9,5 85,9 1009,5 0.000
23-04-2009 8:00 9,5 85 1009,1 0.000
23-04-2009 8:15 9,6 85,8 1009,2 0.000
23-04-2009 8:30 10,1 84,1 1009,1 0.000
23-04-2009 8:45 10,5 82,4 1009,4 0.000
23-04-2009 9:00 10,9 82,5 1008,9 0.000
23-04-2009 9:15 11,6 79,9 1009,3 0.000
23-04-2009 9:30 12,1 78,1 1008,9 0.000
23-04-2009 9:45 13,1 74 1009,2 0.000
23-04-2009 10:00 14,2 72,4 1009,4 0.000
23-04-2009 10:15 14,9 70,1 1009,3 0.000
23-04-2009 10:30 15,8 67,1 1009,5 0.000
23-04-2009 10:45 17,5 61,7 1009,1 0.000
23-04-2009 11:00 17,6 62,3 1008,9 0.000
23-04-2009 11:15 18,5 57,8 1008,9 0.000
23-04-2009 11:30 20 56,1 1008,8 0.000
23-04-2009 11:45 20,1 61,1 1008,8 0.000
23-04-2009 12:00 21,1 52,5 1008,8 0.000
23-04-2009 12:15 22 48,5 1008,8 0.000
23-04-2009 12:30 22,3 44,6 1008,4 0.000
23-04-2009 12:45 22,5 48,4 1008,4 0.000
23-04-2009 13:00 23,1 39,9 1008,5 0.000
23-04-2009 13:15 23,1 41,4 1008,2 0.000
23-04-2009 13:30 23 33,9 1008,3 0.000
23-04-2009 13:45 23,3 35,7 1007,8 0.000
23-04-2009 14:00 23,6 35 1007,9 0.000
23-04-2009 14:15 24,1 31,5 1007,9 0.000
23-04-2009 14:45 23 35,8 1007,6 0.000
23-04-2009 15:00 22,2 41,6 1007,8 0.000
23-04-2009 15:15 21,8 41,4 1008,1 0.000
23-04-2009 15:30 20,9 39,6 1008,6 0.000
23-04-2009 15:45 20,9 40,9 1008,4 0.000
23-04-2009 16:00 21,2 41,9 1008,4 0.000
23-04-2009 16:15 21 43 1008,5 0.000
23-04-2009 16:30 20,4 41,5 1008,4 0.000
23-04-2009 16:45 20,1 42,8 1008,8 0.000
23-04-2009 17:00 18,6 56,6 1008,8 0.000
23-04-2009 17:15 17,1 67,9 1008,7 0.000
23-04-2009 17:30 16,2 77,1 1008,8 0,3
23-04-2009 17:45 16,1 69,4 1009 0.000
23-04-2009 18:00 15,7 71,4 1009,3 0.000
23-04-2009 18:15 15,3 74,9 1009,3 0.000
23-04-2009 18:30 15 73,4 1009,2 0.000
23-04-2009 18:45 14,8 71,7 1010,2 0.000
23-04-2009 19:00 14,3 71 1010,3 0.000
23-04-2009 19:15 14,1 71,3 1010,4 0.000
23-04-2009 19:30 13,8 71,3 1010,8 0.000
23-04-2009 19:45 13,6 70,5 1011,3 0.000
23-04-2009 20:00 13,5 69 1011,3 0.000
23-04-2009 20:15 13,2 69,3 1011,5 0.000
23-04-2009 20:30 13,1 68,7 1011,7 0.000
23-04-2009 20:45 13,1 68,5 1012,2 0.000
23-04-2009 21:00 12,9 68,9 1012,5 0.000
23-04-2009 21:15 12,8 67,9 1012,4 0.000
23-04-2009 21:30 12,8 67,1 1012,4 0.000
23-04-2009 21:45 12,8 67,7 1012,9 0.000
23-04-2009 22:00 12,6 68,4 1013,1 0.000
23-04-2009 22:15 12,4 69,6 1013,2 0.000
23-04-2009 22:30 12,3 69,9 1012,9 0.000
23-04-2009 22:45 12,1 70,3 1013,4 0.000
23-04-2009 23:00 11,8 71,9 1012,9 0.000
23-04-2009 23:15 11,8 69,8 1012,7 0.000
23-04-2009 23:30 11,8 68,3 1013,1 0.000
23-04-2009 23:45 10,5 77,4 1013,2 0.000
24-04-2009 0:00 10,8 73,9 1013,1 0.000
24-04-2009 0:15 11,2 72,2 1013,3 0.000
24-04-2009 0:30 10,8 74,1 1013 0.000
24-04-2009 0:45 10,6 74,9 1013,2 0.000
24-04-2009 1:00 10,7 73,5 1012,9 0.000
24-04-2009 1:15 11,3 68,1 1013,3 0.000
24-04-2009 1:30 11 72 1013 0.000
24-04-2009 1:45 11 72,6 1013,1 0.000
24-04-2009 2:00 10,8 73,3 1012,9 0.000
24-04-2009 2:15 10,8 73,3 1012,8 0.000
24-04-2009 2:30 11 72,8 1013,3 0.000
24-04-2009 2:45 11 71,8 1013 0.000
24-04-2009 3:00 11,1 71,2 1013,3 0.000
24-04-2009 3:15 11,5 69,3 1012,9 0.000
24-04-2009 3:30 11,5 68,6 1013 0.000
24-04-2009 3:45 11,2 70,8 1013,3 0.000
24-04-2009 4:00 10,8 72,9 1013,8 0.000
24-04-2009 4:15 11 70,7 1013,3 0.000
24-04-2009 4:30 11,5 68,3 1013,4 0.000
24-04-2009 4:45 11,5 67,9 1013,6 0.000
24-04-2009 5:00 11,5 68,4 1014,1 0.000
24-04-2009 5:15 11,3 69,6 1013,8 0.000
24-04-2009 5:30 11,5 68 1013,7 0.000
24-04-2009 5:45 11,3 68,3 1014,1 0.000
24-04-2009 6:00 11,4 68,7 1013,7 0.000
24-04-2009 6:15 11,2 70,2 1013,7 0.000
24-04-2009 6:30 11,1 70,3 1013,9 0.000
24-04-2009 6:45 11 72,3 1014,3 0.000
24-04-2009 7:00 11,3 69,6 1013,8 0.000
24-04-2009 7:15 11,5 68,7 1014 0.000
24-04-2009 7:30 11,8 66,9 1014,5 0.000
24-04-2009 7:45 12,1 65,4 1014,3 0.000
24-04-2009 8:00 12,3 65,8 1014,4 0.000
24-04-2009 8:15 12,3 64,1 1014,7 0.000
24-04-2009 8:30 13 61,9 1014,8 0.000
24-04-2009 8:45 13,3 61,9 1014,7 0.000
24-04-2009 9:00 13,8 59 1015,1 0.000
24-04-2009 9:15 13,9 58,7 1014,9 0.000
24-04-2009 9:30 14,5 57,3 1015 0.000
24-04-2009 9:45 14,5 57,3 1015,2 0.000
24-04-2009 10:00 14,7 57,3 1015,2 0.000
24-04-2009 10:15 15,1 55,9 1015,1 0.000
24-04-2009 10:30 15,3 54,7 1014,9 0.000
24-04-2009 10:45 15,9 53 1015,4 0.000
24-04-2009 11:00 15,8 52,9 1014,8 0.000
24-04-2009 11:15 16,5 52,2 1014,9 0.000
24-04-2009 11:30 16,2 52,1 1014,8 0.000
24-04-2009 11:45 16,5 50,8 1014,8 0.000
24-04-2009 12:00 17,1 50,2 1014,6 0.000
24-04-2009 12:15 16,9 50,7 1014,7 0.000
24-04-2009 12:30 17,5 51,2 1014,5 0.000
24-04-2009 12:45 17,6 49,2 1014,4 0.000
24-04-2009 13:00 18 48,2 1014,2 0.000
24-04-2009 13:15 17,8 49,6 1014,5 0.000
24-04-2009 13:30 18,1 47,4 1014,4 0.000
24-04-2009 13:45 18 47,6 1014,7 0.000
24-04-2009 14:00 19 47,2 1014,6 0.000
24-04-2009 14:15 18,8 45,8 1014,6 0.000
24-04-2009 14:30 19,1 45,4 1013,8 0.000
24-04-2009 14:45 19,1 45,6 1014,3 0.000
24-04-2009 15:00 19,1 44,7 1014 0.000
24-04-2009 15:15 19,1 45,6 1014 0.000
24-04-2009 15:30 19,6 44 1014,4 0.000
24-04-2009 15:45 19,3 44,5 1013,7 0.000
24-04-2009 16:00 19,5 44,3 1014 0.000
24-04-2009 16:15 19,5 44,9 1014,1 0.000
24-04-2009 16:30 20 43,9 1013,5 0.000
24-04-2009 16:45 19,3 44,1 1014,1 0.000
24-04-2009 17:00 19,6 44,1 1014,2 0.000
24-04-2009 17:15 19,1 44,5 1013,7 0.000
24-04-2009 17:30 19,3 44,8 1014,1 0.000
24-04-2009 17:45 19,2 45,1 1014,3 0.000
24-04-2009 18:00 18,7 46 1014,2 0.000
24-04-2009 18:15 18,7 46,6 1014,1 0.000
24-04-2009 18:30 18,7 46,3 1014,2 0.000
24-04-2009 18:45 18,6 46,1 1014,4 0.000
24-04-2009 19:00 18,5 47,2 1014,3 0.000
24-04-2009 19:15 18,1 48,8 1014,5 0.000
24-04-2009 19:30 17,5 49,6 1014,4 0.000
24-04-2009 19:45 17,2 51,1 1014,4 0.000
24-04-2009 20:00 16,9 51,5 1014,5 0.000
24-04-2009 20:15 16,5 53,1 1014,8 0.000
24-04-2009 20:30 16,1 54,5 1014,3 0.000
24-04-2009 20:45 15,8 55,7 1014,9 0.000
24-04-2009 21:00 15,5 57,3 1014,9 0.000
24-04-2009 21:15 15,2 59 1015,2 0.000
24-04-2009 21:30 15 60,5 1014,8 0.000
24-04-2009 21:45 14,6 61,9 1015,5 0.000
24-04-2009 22:00 14,5 63,1 1015,3 0.000
24-04-2009 22:15 14,3 64,2 1015,6 0.000
24-04-2009 22:30 14 65,5 1015,4 0.000
24-04-2009 22:45 13,6 67,4 1015,6 0.000
24-04-2009 23:00 13,2 69,4 1015,6 0.000
24-04-2009 23:15 12,8 71,3 1016,2 0.000
24-04-2009 23:30 12,5 72,7 1016,2 0.000
24-04-2009 23:45 12,5 72,8 1015,9 0.000
25-04-2009 0:00 12,5 72,4 1016,1 0.000
25-04-2009 0:15 12,1 73,2 1016,4 0.000
25-04-2009 0:30 12,1 73,5 1016,4 0.000
25-04-2009 0:45 11,8 74,8 1016,3 0.000
25-04-2009 1:00 11,4 76,5 1016,2 0.000
25-04-2009 1:15 11,5 75,6 1016,2 0.000
25-04-2009 1:30 11,6 74,9 1016,2 0.000
25-04-2009 1:45 11,5 75,6 1016,1 0.000
25-04-2009 2:00 11,3 76,6 1016,1 0.000
25-04-2009 2:15 11,1 77,3 1016,3 0.000
25-04-2009 2:30 11 77,9 1016,2 0.000
25-04-2009 2:45 11,1 76,9 1016,1 0.000
25-04-2009 3:00 10,7 79,9 1016,3 0.000
25-04-2009 3:15 10,1 83,6 1016,4 0.000
25-04-2009 3:30 9,8 84,9 1016,2 0.000
25-04-2009 3:45 10 82,3 1015,9 0.000
25-04-2009 4:00 10,1 80,4 1016,1 0.000
25-04-2009 4:15 10 81,7 1016 0.000
25-04-2009 4:30 9,8 82,3 1015,7 0.000
25-04-2009 4:45 8,8 86,9 1016,1 0.000
25-04-2009 5:00 8,1 89,9 1016,1 0.000
25-04-2009 5:15 8 90,6 1016,2 0.000
25-04-2009 5:30 8,1 89,6 1016 0.000
25-04-2009 5:45 8,6 86,3 1016,1 0.000
25-04-2009 6:00 8,6 87,5 1016,5 0.000
25-04-2009 6:15 8,4 89,4 1016,1 0.000
25-04-2009 6:30 8,3 90,4 1016,3 0.000
25-04-2009 6:45 8,2 91,4 1016,5 0.000
25-04-2009 7:00 9 88,9 1016,5 0.000
25-04-2009 7:15 9,8 86,4 1016,9 0.000
25-04-2009 7:30 10,8 82 1016,8 0.000
25-04-2009 7:45 11 82,2 1016,4 0.000
25-04-2009 8:00 11,6 79,8 1016,5 0.000
25-04-2009 8:15 12,1 78,2 1016,9 0.000
25-04-2009 8:30 12,6 75,4 1016,9 0.000
25-04-2009 8:45 13,9 73,6 1016,8 0.000
25-04-2009 9:00 14,3 65,4 1017,4 0.000
25-04-2009 9:15 14,9 61,9 1017,3 0.000
25-04-2009 9:30 15,5 57,6 1016,8 0.000
25-04-2009 9:45 16 55,4 1017,1 0.000
25-04-2009 10:00 16,5 55,7 1016,9 0.000
25-04-2009 10:15 17,5 54,2 1016,8 0.000
25-04-2009 10:30 18,5 52,1 1016,8 0.000
25-04-2009 10:45 18 52,2 1017,2 0.000
25-04-2009 11:00 18,6 54,3 1017 0.000
25-04-2009 11:15 18,6 52,1 1016,9 0.000
25-04-2009 11:30 19,2 49,8 1016,8 0.000
25-04-2009 11:45 18,6 53,3 1016,9 0.000
25-04-2009 12:00 19,6 49,9 1016,5 0.000
25-04-2009 12:15 19,5 50,4 1016,7 0.000
25-04-2009 12:30 20,2 54,5 1016,2 0.000
25-04-2009 12:45 20,7 48 1016,2 0.000
25-04-2009 13:00 21 45,6 1015,9 0.000
25-04-2009 13:15 20,5 47,3 1015,6 0.000
25-04-2009 13:30 21,4 44,9 1015,5 0.000
25-04-2009 13:45 21,7 43,5 1015,7 0.000
25-04-2009 14:00 21,6 42,9 1015,1 0.000
25-04-2009 14:15 22,4 41,6 1015,2 0.000
25-04-2009 14:30 22,5 46,8 1015,2 0.000
25-04-2009 14:45 21,8 41,3 1015,1 0.000
25-04-2009 15:00 22,1 44,8 1014,9 0.000
25-04-2009 15:15 22,6 40 1014,9 0.000
25-04-2009 15:30 22,7 38,5 1015,1 0.000
25-04-2009 15:45 22,5 41,8 1014,9 0.000
25-04-2009 16:00 23 42 1014,7 0.000
25-04-2009 16:15 23,1 40,3 1014,6 0.000
25-04-2009 16:30 23,3 38,2 1014,1 0.000
25-04-2009 16:45 23,1 38,1 1014,6 0.000
25-04-2009 17:00 24 38,6 1013,9 0.000
25-04-2009 17:15 23,6 38,7 1013,8 0.000
25-04-2009 17:30 23,1 40 1013,8 0.000
25-04-2009 17:45 23 39,9 1013,3 0.000
25-04-2009 18:00 22,5 42,1 1013,5 0.000
25-04-2009 18:15 22,7 42,4 1013,7 0.000
25-04-2009 18:30 21,9 43,7 1013,3 0.000
25-04-2009 18:45 20,5 59,9 1013,8 0.000
25-04-2009 19:00 20 60,9 1013,7 0.000
25-04-2009 19:15 19,1 63,2 1013,8 0.000
25-04-2009 19:30 18,8 65,4 1014,5 0.000
25-04-2009 19:45 18,5 67,1 1014 0.000
25-04-2009 20:00 18 69,9 1014 0.000
25-04-2009 20:15 17,5 72,1 1014,6 0.000
25-04-2009 20:30 17,3 72,6 1014,8 0.000
25-04-2009 20:45 16,8 74,7 1014,3 0.000
25-04-2009 21:00 16,5 74,9 1014,1 0.000
25-04-2009 21:15 16,4 75,6 1015 0.000
25-04-2009 21:30 16,1 76,5 1014,4 0.000
25-04-2009 21:45 15,6 79,5 1015 0.000
25-04-2009 22:00 14,6 86,3 1015 0.000
25-04-2009 22:15 14,1 87,1 1014,7 0.000
25-04-2009 22:30 14,3 86,9 1015 0.000
25-04-2009 22:45 13,7 90,3 1014,9 0.000
25-04-2009 23:00 13,3 91,1 1014,7 0.000
25-04-2009 23:15 13 92,5 1014,9 0.000
25-04-2009 23:30 13,1 92,4 1015 0.000
25-04-2009 23:45 13 92,5 1014,7 0.000
26-04-2009 0:00 12,7 92,8 1014,7 0.000
26-04-2009 0:15 12,5 94,2 1014,6 0.000
26-04-2009 0:30 12,4 94,3 1015 0.000
26-04-2009 0:45 12,2 95,3 1015 0.000
26-04-2009 1:00 12 95,6 1015,1 0.000
26-04-2009 1:15 13,1 90,9 1014,7 0.000
26-04-2009 1:30 13,9 87,5 1014,5 0.000
26-04-2009 1:45 13,8 90,5 1014,9 0.000
26-04-2009 2:00 12,9 92,8 1014,8 0.000
26-04-2009 2:15 13,3 90,4 1014,6 0.000
26-04-2009 2:30 13,5 89,8 1014,8 0.000
26-04-2009 2:45 13,8 88,5 1013,6 0.000
26-04-2009 3:00 13,6 90,4 1013,5 0.000
26-04-2009 3:15 13,6 87,6 1013,6 0.000
26-04-2009 3:30 13,6 89,1 1014,2 0.000
26-04-2009 3:45 13 93,4 1013,5 0.000
26-04-2009 4:00 13,3 89,2 1013,6 0.000
26-04-2009 4:15 13,6 88,2 1013,7 0.000
26-04-2009 4:30 14,1 83,6 1013,4 0.000
26-04-2009 4:45 14,2 82,3 1013,9 0.000
26-04-2009 5:00 13,6 86,7 1013,5 0.000
26-04-2009 5:15 13,5 85,8 1013,7 0.000
26-04-2009 5:30 13,3 87,9 1013,7 0.000
26-04-2009 5:45 14 82,4 1012,3 0.000
26-04-2009 6:00 14 83 1012,5 0.000
26-04-2009 6:15 13,5 87,2 1012,9 0.000
26-04-2009 6:30 13,3 87,9 1012,5 0.000
26-04-2009 6:45 14,1 80,9 1012,3 0.000
26-04-2009 7:00 13,9 84,6 1012,6 0.000
26-04-2009 7:15 13,8 83,8 1012,3 0.000
26-04-2009 7:30 14 83,4 1012,7 0.000
26-04-2009 7:45 13,6 89,5 1012,9 0.000
26-04-2009 8:00 13,5 91,9 1013,3 0.000
26-04-2009 8:15 13,5 94 1013,3 0.000
26-04-2009 8:30 13,9 88,7 1012,7 0.000
26-04-2009 8:45 14,3 86 1012,9 0.000
26-04-2009 9:00 14,2 85,8 1012,2 0.000
26-04-2009 9:15 14,1 89,5 1012,7 0.000
26-04-2009 9:30 14,2 88 1012 0.000
26-04-2009 9:45 14,1 86,7 1012 0.000
26-04-2009 10:00 14,1 87,9 1012,1 0.000
26-04-2009 10:15 14,3 87,3 1012 0.000
26-04-2009 10:30 14,4 88,5 1012,2 0.000
26-04-2009 10:45 14,5 86,3 1012 0.000
26-04-2009 11:00 14,6 86,2 1012,2 0.000
26-04-2009 11:15 14,8 88,4 1012,4 0,3
26-04-2009 11:30 14,6 89,3 1012,8 0.000
26-04-2009 11:45 14,3 93,1 1012,6 0,6
26-04-2009 12:00 14,2 94,1 1012,8 0,3
26-04-2009 12:15 14,2 96 1012,8 0,3
26-04-2009 12:30 14,2 96,9 1012,5 0,6
26-04-2009 12:45 14,3 97,7 1012,8 0,3
26-04-2009 13:00 14,3 97,8 1012,8 0,6
26-04-2009 13:15 14,4 98,9 1013 0,3
26-04-2009 13:30 14,4 97,8 1012 0,3
26-04-2009 13:45 14,5 97,2 1011,8 0.000
26-04-2009 14:00 14,6 94,2 1012,5 0,3
26-04-2009 14:15 15 98,5 1012,1 0,3
26-04-2009 14:30 14,8 96,4 1011,9 0.000
26-04-2009 14:45 14,6 93,4 1010,7 0,3
26-04-2009 15:00 14,5 92,8 1010 0.000
26-04-2009 15:15 14,6 90,8 1009,6 0.000
26-04-2009 15:30 14,8 89,5 1009,9 0.000
26-04-2009 15:45 14,7 92 1009,6 0.000
26-04-2009 16:00 14,9 92,7 1010 0.000
26-04-2009 16:15 15,5 90,5 1009,3 0.000
26-04-2009 16:30 15,7 89,2 1009,5 0.000
26-04-2009 16:45 15,8 87 1009,2 0.000
26-04-2009 17:00 15,6 86,6 1009,1 0.000
26-04-2009 17:15 15,5 87,1 1009,4 0.000
26-04-2009 17:30 15,3 87,9 1009,3 0.000
26-04-2009 17:45 15,2 89,4 1009,7 0.000
26-04-2009 18:00 15,1 91 1009,4 0.000
26-04-2009 18:15 15,1 89,5 1009,5 0.000
26-04-2009 18:30 15,5 86,3 1009,6 0.000
26-04-2009 18:45 15,6 86,6 1009,3 0.000
26-04-2009 19:00 15,7 87,2 1009,3 0.000
26-04-2009 19:15 15,8 86,2 1009,8 0.000
26-04-2009 19:30 15,6 87,5 1009,3 0.000
26-04-2009 19:45 15,4 89,6 1009,3 0.000
26-04-2009 20:00 15 91,3 1009,2 0.000
26-04-2009 20:15 15 89,3 1009,2 0.000
26-04-2009 20:30 14,8 90,9 1009,6 0.000
26-04-2009 20:45 14,8 89,3 1009,3 0.000
26-04-2009 21:00 14,6 91,2 1009,8 0.000
26-04-2009 21:15 14,6 90,5 1010,4 0.000
26-04-2009 21:30 14,7 88,6 1010,4 0.000
26-04-2009 21:45 14,6 89,1 1009,9 0.000
26-04-2009 22:00 14,5 91,3 1009,7 0.000
26-04-2009 22:15 14,3 93,5 1010 0.000
26-04-2009 22:30 14 96,6 1010,1 0,6
26-04-2009 22:45 13,8 98,7 1009,9 0.000
26-04-2009 23:00 13,7 99,9 1010,1 0.000
26-04-2009 23:15 13,3 99,9 1010,3 0,3
26-04-2009 23:30 13,1 99,9 1010,4 0.000
26-04-2009 23:45 13 99,9 1010 0.000
27-04-2009 0:00 13 99,9 1010,2 0.000
27-04-2009 0:15 12,8 99,9 1010,3 0.000
27-04-2009 0:30 13,2 99,9 1009,8 0.000
27-04-2009 0:45 13,4 99,9 1009,1 0.000
27-04-2009 1:00 13,4 99,9 1009,3 0.000
27-04-2009 1:15 13,2 99,9 1009,1 0.000
27-04-2009 1:30 13,5 99,9 1008,9 0.000
27-04-2009 1:45 13,6 99 1009 0.000
27-04-2009 2:00 13,6 98,3 1008,7 0.000
27-04-2009 2:15 13,5 98,8 1008,3 0.000
27-04-2009 2:30 13,5 99,1 1008,1 0.000
27-04-2009 2:45 13,5 98,1 1007,8 0.000
27-04-2009 3:00 13,6 96,8 1008 0.000
27-04-2009 3:15 13,6 97,2 1008,1 0.000
27-04-2009 3:30 13,5 97,8 1007,8 0.000
27-04-2009 3:45 13,3 98,3 1008 0.000
27-04-2009 4:00 13,2 98,9 1007,2 0.000
27-04-2009 4:15 13,2 98,6 1006,6 0.000
27-04-2009 4:30 13,1 97,1 1006,6 0.000
27-04-2009 4:45 13,3 95,4 1006,6 0.000
27-04-2009 5:00 13,5 93,8 1006,8 0.000
27-04-2009 5:15 13,4 94,4 1006,6 0.000
27-04-2009 5:30 12,8 97,1 1006,3 0.000
27-04-2009 5:45 12,3 99,2 1005,9 0.000
27-04-2009 6:00 12,4 98,6 1006,2 0.000
27-04-2009 6:15 12,5 98,9 1006,1 0.000
27-04-2009 6:30 12,1 99,9 1006,2 0.000
27-04-2009 6:45 11,8 99,9 1006,1 0.000
27-04-2009 7:00 12,3 99,9 1006,2 0.000
27-04-2009 7:15 12,9 98,9 1005,8 0.000
27-04-2009 7:30 13,5 93,2 1005,4 0.000
27-04-2009 7:45 13,9 93 1005,4 0.000
27-04-2009 8:00 14,1 93,3 1004,8 0.000
27-04-2009 8:15 14,6 87,1 1004,3 0.000
27-04-2009 8:30 15 83,7 1004,6 0.000
27-04-2009 8:45 15,1 83,7 1004,4 0.000
27-04-2009 9:00 15,5 83,4 1004,6 0.000
27-04-2009 9:15 16,3 79,9 1004,5 0.000
27-04-2009 9:30 17,3 73,7 1003,6 0.000
27-04-2009 9:45 17,5 72,2 1003,1 0.000
27-04-2009 10:00 17,9 72,6 1003,3 0.000
27-04-2009 10:15 17,8 72,1 1002,6 0.000
27-04-2009 10:30 18 71,6 1002,5 0.000
27-04-2009 10:45 18,3 72,8 1002,3 0.000
27-04-2009 11:00 18,7 70,2 1002,1 0.000
27-04-2009 11:15 19 68,7 1002,6 0.000
27-04-2009 11:30 19,3 66,5 1002,6 0.000
27-04-2009 11:45 19,6 63,7 1002 0.000
27-04-2009 12:00 19,6 64 1002,2 0.000
27-04-2009 12:15 19,8 68,2 1001,9 0.000
27-04-2009 12:30 19,7 61,6 1001,4 0.000
27-04-2009 13:00 19,8 76,4 1000,6 0.000
27-04-2009 13:15 20 75 1000,4 0.000
27-04-2009 13:30 19,9 66 999,9 0.000
27-04-2009 13:45 20,2 71,9 999,8 0.000
27-04-2009 14:00 20,1 75,3 999,8 0.000
27-04-2009 14:15 20,2 69,9 999,7 0.000
27-04-2009 14:30 20 70 998,8 0.000
27-04-2009 14:45 19,5 80 999,3 0.000
27-04-2009 15:00 19 80,7 999,2 0.000
27-04-2009 15:15 18,6 84,8 999,6 0.000
27-04-2009 15:30 18,7 85,1 999,1 0.000
27-04-2009 15:45 19 81,4 998,6 0.000
27-04-2009 16:00 19,2 76,2 998,8 0.000
27-04-2009 16:15 19,1 84,9 998,6 0.000
27-04-2009 16:30 19,2 81,4 998,2 0.000
27-04-2009 16:45 19,4 71,3 998 0.000
27-04-2009 17:00 19 82,7 998 0.000
27-04-2009 17:15 18,8 80,3 997,6 0.000
27-04-2009 17:30 18,3 81,6 998,3 0,3
27-04-2009 17:45 17,1 89,7 998 0,3
27-04-2009 18:00 16,7 90,1 997,9 0.000
27-04-2009 18:15 17,3 78,2 997,2 0.000
27-04-2009 18:30 17,2 82,9 997,5 0.000
27-04-2009 18:45 16,8 85,5 997,5 0.000
27-04-2009 19:00 16,7 88 997,4 0.000
27-04-2009 19:15 16,6 86,4 997,4 0.000
27-04-2009 19:30 16,5 85,2 997,5 0.000
27-04-2009 19:45 16,6 81,3 997 0.000
27-04-2009 20:00 16,7 82,4 997,3 0,3
27-04-2009 20:15 16,5 84,3 996,6 0.000
27-04-2009 20:30 16,4 84,4 996,9 0.000
27-04-2009 20:45 16,4 84,7 996,8 0.000
27-04-2009 21:00 16,8 78,8 996,4 0.000
27-04-2009 21:15 16,8 81,8 996,7 0.000
27-04-2009 21:30 16,5 82 997,2 0.000
27-04-2009 21:45 16,9 76,8 997,4 0.000
27-04-2009 22:00 17 72,8 997,7 0.000
27-04-2009 22:15 17,3 69,7 997 0.000
27-04-2009 22:30 17,1 67,1 997,5 0.000
27-04-2009 22:45 17,1 65,3 997,3 0.000
27-04-2009 23:00 16,9 67,5 997,3 0.000
27-04-2009 23:15 16,6 68,8 997,1 0.000
27-04-2009 23:30 16,4 70,9 998 0.000
27-04-2009 23:45 16,1 72,5 997,7 0.000
28-04-2009 0:00 15,8 73,9 998,3 0.000
28-04-2009 0:15 15,5 74,6 998 0.000
28-04-2009 0:30 15,4 75,9 998,2 0.000
28-04-2009 0:45 15,3 76,7 998,4 0.000
28-04-2009 1:00 15 78,4 998,2 0.000
28-04-2009 1:15 14,5 83,9 998 0.000
28-04-2009 1:30 14,1 85,5 998,5 0.000
28-04-2009 1:45 13,9 85,8 998,6 0.000
28-04-2009 2:00 13,9 85 998,2 0.000
28-04-2009 2:15 13,7 86,3 998,1 0.000
28-04-2009 2:30 13,6 87,3 998,2 0.000
28-04-2009 2:45 13,6 87,5 998,2 0.000
28-04-2009 3:00 13,4 87,6 998,3 0.000
28-04-2009 3:15 13,6 86,6 998,1 0.000
28-04-2009 3:30 13,6 87,2 997,7 0.000
28-04-2009 3:45 13,5 90,6 998,1 0.000
28-04-2009 4:00 13 93,7 997,6 0.000
28-04-2009 4:15 13,2 89,8 997,6 0.000
28-04-2009 4:30 13,5 86,6 997,8 0.000
28-04-2009 4:45 13,5 87,3 997,9 0.000
28-04-2009 5:00 13,5 86,3 997,6 0.000
28-04-2009 5:15 13,4 86,1 997,7 0.000
28-04-2009 5:30 13,4 86,1 997,5 0.000
28-04-2009 5:45 13,3 86,5 997,5 0.000
28-04-2009 6:00 13,3 87,1 997,7 0.000
28-04-2009 6:15 13,3 86,7 997,6 0.000
28-04-2009 6:30 13,2 87,1 997,9 0.000
28-04-2009 6:45 13,1 87,8 997,8 0.000
28-04-2009 7:00 13,2 87,6 997,8 0.000
28-04-2009 7:15 13,3 86,5 997,9 0.000
28-04-2009 7:30 13,5 86,4 998,2 0.000
28-04-2009 7:45 14,5 82,2 998,2 0.000
28-04-2009 8:00 15,3 77 998,6 0.000
28-04-2009 8:15 15,5 77,3 998,4 0.000
28-04-2009 8:30 15,5 74,5 998,8 0.000
28-04-2009 8:45 16,1 71,6 998,9 0.000
28-04-2009 9:00 17 70,5 998,9 0.000
28-04-2009 9:15 17,1 68,9 998,9 0.000
28-04-2009 9:30 16,7 71,2 998,9 0.000
28-04-2009 9:45 16,7 69,4 998,8 0.000
28-04-2009 10:00 17 74,5 999,1 0.000
28-04-2009 10:15 16,2 73,4 999,1 0.000
28-04-2009 10:30 16,6 72 999 0.000
28-04-2009 10:45 17,2 66,4 999 0.000
28-04-2009 11:00 17,4 66,6 999,5 0.000
28-04-2009 11:15 17,1 66,5 999,4 0.000
28-04-2009 11:30 18,9 63,9 999,4 0.000
28-04-2009 11:45 18,5 64,2 999,2 0.000
28-04-2009 12:00 18,1 65,8 999,4 0.000
28-04-2009 12:15 18,2 63,4 999,5 0.000
28-04-2009 12:30 18,5 64,9 999,5 0.000
28-04-2009 12:45 19,2 59,5 999,4 0.000
28-04-2009 13:00 19,9 61,2 998,9 0.000
28-04-2009 13:15 20 59,3 999,3 0.000
28-04-2009 13:30 19,5 58,3 999,2 0.000
28-04-2009 13:45 18,7 59 999,4 0.000
28-04-2009 14:00 18,6 62,8 999,3 0.000
28-04-2009 14:15 18,8 66,6 999,5 0.000
28-04-2009 14:30 18,4 72,1 999,6 0.000
28-04-2009 14:45 17,4 76,2 999,9 0.000
28-04-2009 15:00 17,1 77,2 999,9 0.000
28-04-2009 15:15 17,1 76,9 999,9 0.000
28-04-2009 15:30 17,1 79,8 1000 0.000
28-04-2009 15:45 17,5 80 1000 0.000
28-04-2009 16:00 18,4 73,1 1000,1 0.000
28-04-2009 16:15 18 77,4 1000,2 0.000
28-04-2009 16:30 17,1 82,3 1000,1 0.000
28-04-2009 16:45 15,8 91,6 1000,5 0,6
28-04-2009 17:00 15,5 96 1000,6 0,3
28-04-2009 17:15 15 98,8 1000,5 0,9
28-04-2009 17:30 15,3 99 1000,8 0.000
28-04-2009 17:45 15 95 1000,8 0,3
28-04-2009 18:00 14,3 93,5 1001,1 0.000
28-04-2009 18:15 14,5 91,8 1001,2 0,3
28-04-2009 18:30 14,4 90,9 1001,1 0.000
28-04-2009 18:45 14,5 91,5 1001,1 0.000
28-04-2009 19:00 14,6 91,3 1001,4 0.000
28-04-2009 19:15 14,6 90,5 1001,3 0.000
28-04-2009 19:30 14,6 89,4 1001,5 0.000
28-04-2009 19:45 14,6 89,4 1001,7 0.000
28-04-2009 20:00 14,5 88,8 1002,1 0.000
28-04-2009 20:15 14,5 89,7 1002,3 0.000
28-04-2009 20:30 14,5 90 1002,7 0.000
28-04-2009 20:45 14,4 89,2 1002,7 0.000
28-04-2009 21:00 14,3 90,7 1002,9 0.000
28-04-2009 21:15 14,3 91,6 1002,9 0.000
28-04-2009 21:30 14,2 91 1002,9 0.000
28-04-2009 21:45 14,1 91,1 1003,1 0.000
28-04-2009 22:00 14,2 90,1 1003,5 0.000
28-04-2009 22:15 14,1 90,2 1003,4 0.000
28-04-2009 22:30 13,8 91,8 1003,1 0.000
28-04-2009 22:45 14 89,2 1003,6 0.000
28-04-2009 23:00 13,8 87,7 1003,5 0.000
28-04-2009 23:15 13,6 89,2 1003,7 0.000
28-04-2009 23:30 13,6 88,4 1003,7 0.000
28-04-2009 23:45 13,6 88,8 1003,6 0.000
29-04-2009 0:00 13,6 88,7 1003,7 0.000
29-04-2009 0:15 13,5 88,5 1003,9 0.000
29-04-2009 0:30 13,4 88 1003,7 0.000
29-04-2009 0:45 13,5 87,5 1003,9 0.000
29-04-2009 1:00 13,5 87,2 1004,4 0.000
29-04-2009 1:15 13,6 85,8 1004,3 0.000
29-04-2009 1:30 13,6 85,8 1004,3 0.000
29-04-2009 1:45 13,5 86,9 1003,8 0.000
29-04-2009 2:00 13,1 88,6 1004 0.000
29-04-2009 2:15 12,8 89,7 1003,9 0.000
29-04-2009 2:30 12,6 88,6 1003,5 0.000
29-04-2009 2:45 12,6 86,3 1003,9 0.000
29-04-2009 3:00 12,2 87,8 1004 0.000
29-04-2009 3:15 12,9 80,3 1004 0.000
29-04-2009 3:30 12,7 82,2 1004 0.000
29-04-2009 3:45 12,5 82,4 1004,1 0.000
29-04-2009 4:00 12,4 82,7 1003,6 0.000
29-04-2009 4:15 12,4 81,4 1004 0.000
29-04-2009 4:30 12,8 80,4 1004,3 0.000
29-04-2009 4:45 12,5 81,1 1004,4 0.000
29-04-2009 5:00 12,1 83,5 1004,6 0.000
29-04-2009 5:15 11,1 88,8 1003,9 0.000
29-04-2009 5:30 11,2 86,8 1004,2 0.000
29-04-2009 5:45 12,5 82,7 1004,2 0.000
29-04-2009 6:00 12,9 80,7 1004,3 0.000
29-04-2009 6:15 12,5 81,8 1004,6 0.000
29-04-2009 6:30 12,5 81,4 1004,3 0.000
29-04-2009 6:45 12,7 80,4 1004,4 0.000
29-04-2009 7:00 13 78,1 1004,7 0.000
29-04-2009 7:15 13,3 74,6 1004,8 0.000
29-04-2009 7:30 13,3 75,5 1005,1 0.000
29-04-2009 7:45 13,6 75,4 1004,5 0.000
29-04-2009 8:00 14,2 74,1 1005,1 0.000
29-04-2009 8:15 14,1 75 1004,7 0.000
29-04-2009 8:30 14 76,3 1004,9 0.000
29-04-2009 8:45 14,2 74,7 1005 0.000
29-04-2009 9:00 14,4 74,2 1004,9 0.000
29-04-2009 9:15 14,4 76,4 1005,2 0.000
29-04-2009 9:30 14,4 76,4 1004,8 0.000
29-04-2009 9:45 14,8 75,1 1004,6 0.000
29-04-2009 10:00 15 76,8 1005 0.000
29-04-2009 10:15 13,8 81,2 1005,5 0,6
29-04-2009 10:30 13,8 85,6 1005,1 0,3
29-04-2009 10:45 12,8 89,8 1005,5 0,6
29-04-2009 11:00 12,6 93,5 1005,7 1,5
29-04-2009 11:15 13,4 91,3 1005,8 0,3
29-04-2009 11:30 14,1 76,5 1005,6 0.000
29-04-2009 11:45 14,2 76,8 1005,8 0.000
29-04-2009 12:00 14,3 78,9 1005,3 0.000
29-04-2009 12:15 15,1 73,5 1005,2 0.000
29-04-2009 12:30 15,2 72,3 1004,9 0.000
29-04-2009 12:45 15,5 69,9 1005,1 0.000
29-04-2009 13:00 16 68,6 1004,8 0.000
29-04-2009 13:15 15,6 65,7 1004,6 0.000
29-04-2009 13:30 15,6 65,9 1005 0.000
29-04-2009 13:45 16 63 1005,1 0.000
29-04-2009 14:00 16,5 65,5 1004,8 0.000
29-04-2009 14:15 16,1 64,9 1004,9 0.000
29-04-2009 14:30 16,1 67,6 1004,9 0.000
29-04-2009 14:45 15,3 66,7 1005,1 0.000
29-04-2009 15:00 16,6 66,2 1005 0.000
29-04-2009 15:15 16,1 68,3 1005,3 0.000
29-04-2009 15:30 16,3 63,3 1004,9 0.000
29-04-2009 15:45 15,1 70 1005,2 0.000
29-04-2009 16:00 15,3 67,6 1004,5 0.000
29-04-2009 16:15 16,3 64,9 1004,1 0.000
29-04-2009 16:30 15,9 62,4 1004,4 0.000
29-04-2009 16:45 15,4 68,2 1004,1 0.000
29-04-2009 17:00 15 65,8 1004,2 0.000
29-04-2009 17:15 12,9 76,4 1004,6 0.000
29-04-2009 17:45 9,5 93,5 1004,4 2,7
29-04-2009 18:00 9,7 93,5 1004,2 0,6
29-04-2009 18:15 10,1 92,1 1004,5 0.000
29-04-2009 18:30 10,6 90,9 1004,6 0.000
29-04-2009 18:45 10,7 88,1 1004,5 0.000
29-04-2009 19:00 10,6 91,1 1004,7 0.000
29-04-2009 19:15 10,8 91,4 1004,9 0.000
29-04-2009 19:30 10,6 90,5 1005,1 0.000
29-04-2009 19:45 10,8 88,8 1005 0.000
29-04-2009 20:00 11 88,9 1005,1 0.000
29-04-2009 20:15 10,8 88,3 1005 0.000
29-04-2009 20:30 10,5 90,2 1005,6 0.000
29-04-2009 20:45 10,5 89,6 1006 0.000
29-04-2009 21:00 10 92,9 1005,9 0.000
29-04-2009 21:15 9,9 94,2 1006,6 0.000
29-04-2009 21:30 9,1 97,2 1006,4 0.000
29-04-2009 21:45 8,3 99,1 1006,6 0.000
29-04-2009 22:00 8,8 99,9 1006,6 0.000
29-04-2009 22:15 8,8 99,9 1006,8 0.000
29-04-2009 22:30 8,7 99,9 1006,5 0.000
29-04-2009 22:45 8,6 99,9 1006,7 0.000
29-04-2009 23:00 8,8 99,9 1006,7 0.000
29-04-2009 23:15 8,7 99,9 1006,8 0.000
29-04-2009 23:30 8,5 99,9 1007,3 0.000
29-04-2009 23:45 8,5 99,9 1007,1 0.000
30-04-2009 0:00 8,9 99,9 1007,2 0.000
30-04-2009 0:15 9 99,4 1007,2 0.000
30-04-2009 0:30 8,9 99,9 1007,4 0.000
30-04-2009 0:45 8,8 99,9 1007,6 0,3
30-04-2009 1:00 8,8 99,9 1007,4 0.000
30-04-2009 1:15 8,8 99,9 1007,7 0.000
30-04-2009 1:30 8,8 99,9 1007,3 0,6
30-04-2009 1:45 8,8 99,9 1007,2 0,3
30-04-2009 2:00 8,9 99,9 1007,4 0,3
30-04-2009 2:15 9 99,9 1007,3 0.000
30-04-2009 2:30 9 99,9 1007,6 0.000
30-04-2009 2:45 9 99,9 1007,4 0.000
30-04-2009 3:00 9,1 99,9 1007,5 0.000
30-04-2009 3:15 9,1 99,9 1007,4 0.000
30-04-2009 3:30 9,1 99,9 1007,4 0.000
30-04-2009 3:45 9,1 99,9 1007,4 0.000
30-04-2009 4:00 9,1 99,9 1007,1 0.000
30-04-2009 4:15 9 99,9 1007,4 0.000
30-04-2009 4:30 8,9 99,9 1007,5 0.000
30-04-2009 4:45 9 99,9 1006,9 0.000
30-04-2009 5:00 9 99,9 1007,3 0.000
30-04-2009 5:15 8,8 99,9 1007,1 0.000
30-04-2009 5:30 8,8 99,9 1007,4 0.000
30-04-2009 5:45 8,8 99,9 1007,7 0.000
30-04-2009 6:00 8,8 99,9 1007,6 0.000
30-04-2009 6:15 8,9 99,9 1007,7 0.000
30-04-2009 6:30 9,1 98,8 1007,7 0.000
30-04-2009 6:45 9,1 98,8 1007,8 0,3
30-04-2009 7:00 9,2 98,4 1007,8 0.000
30-04-2009 7:15 9,3 97,4 1008,1 0.000
30-04-2009 7:30 9,9 96,2 1007,8 0.000
30-04-2009 7:45 10,6 93,4 1008 0.000
30-04-2009 8:00 11,5 89,5 1008,1 0.000
30-04-2009 8:15 11,3 86,6 1008 0.000
30-04-2009 8:30 11,1 87,2 1008,1 0.000
30-04-2009 8:45 10,8 89,2 1008,1 0.000
30-04-2009 9:00 11 88,2 1007,8 0.000
30-04-2009 9:15 12,4 86,4 1008 0.000
30-04-2009 9:30 13,3 78,9 1008,2 0.000
30-04-2009 9:45 13,8 76,4 1008 0.000
30-04-2009 10:00 14,3 71,6 1008,2 0.000
30-04-2009 10:15 15,6 75,5 1008,1 0.000
30-04-2009 10:30 15,3 72,5 1008,3 0.000
30-04-2009 10:45 15,5 67,8 1007,9 0.000
30-04-2009 11:00 15,5 70,9 1007,9 0.000
30-04-2009 11:15 15,2 73,1 1007,8 0.000
30-04-2009 11:30 16,1 75,7 1007,9 0.000
30-04-2009 11:45 17,1 63,5 1007,7 0.000
30-04-2009 12:00 16,2 63,9 1007,7 0.000
30-04-2009 12:15 17,4 63,1 1007,6 0.000
30-04-2009 12:30 17,3 64 1007,8 0.000
30-04-2009 12:45 16,9 66,2 1007,7 0.000
30-04-2009 13:00 17 63,8 1007,5 0.000
30-04-2009 13:15 15,8 67,7 1007,7 0.000
30-04-2009 13:30 13,6 79,5 1008 0,6
30-04-2009 13:45 14 78,4 1008,4 0.000
30-04-2009 14:00 14 80,2 1007,9 0.000
30-04-2009 14:15 15,5 75,2 1008,1 0.000
30-04-2009 14:30 16,4 70,9 1007,9 0.000
30-04-2009 14:45 16,4 63 1008 0.000
30-04-2009 15:00 16,9 58,6 1008,1 0.000
30-04-2009 15:15 17,9 53,1 1007,7 0.000
30-04-2009 15:30 17,8 54,1 1007,9 0.000
30-04-2009 15:45 17,5 53,8 1008,2 0.000
30-04-2009 16:00 18,3 53,4 1008,1 0.000
30-04-2009 16:15 18,5 50,9 1007,9 0.000
30-04-2009 16:30 19 50,5 1008,1 0.000
30-04-2009 16:45 17,6 53,5 1007,9 0.000
30-04-2009 17:00 18,9 52,9 1007,8 0.000
30-04-2009 17:15 18,1 51 1008 0.000
30-04-2009 17:30 17,8 51,1 1008,3 0.000
30-04-2009 17:45 17,5 59,1 1008,2 0.000
30-04-2009 18:00 17,5 60 1008,2 0.000
30-04-2009 18:15 17,1 61,6 1008,3 0.000
30-04-2009 18:30 16,8 66,6 1008,3 0.000
30-04-2009 18:45 16,6 66,3 1008 0.000
30-04-2009 19:00 16,5 68,1 1008,2 0.000
30-04-2009 19:15 16,5 69 1008,3 0.000
30-04-2009 19:30 16,5 71,5 1008,4 0.000
30-04-2009 19:45 16,1 72,3 1008,6 0.000
30-04-2009 20:00 15,6 74,5 1008,5 0.000
30-04-2009 20:15 15,2 76,5 1008,8 0.000
30-04-2009 20:30 15 76,9 1008,8 0.000
30-04-2009 20:45 14,8 80,4 1008,7 0.000
30-04-2009 21:00 14,8 80 1008,9 0.000
30-04-2009 21:15 14,7 81,2 1009,1 0.000
30-04-2009 21:30 14,5 81,3 1008,8 0.000
30-04-2009 21:45 14,4 81,7 1009,3 0.000
30-04-2009 22:00 14,2 83,7 1009,6 0.000
30-04-2009 22:15 14,3 77,8 1009,3 0.000
30-04-2009 22:30 14,6 75,4 1009,4 0.000
30-04-2009 22:45 14,2 83,6 1009,6 0.000
30-04-2009 23:00 14 80,7 1009,6 0.000
30-04-2009 23:15 13,9 80,7 1010 0.000
30-04-2009 23:30 13,9 82,4 1010 0.000
30-04-2009 23:45 13,8 83,1 1009,9 0.000

 

 

Torna alla pagina precedente